Wetterdaten: Dienstag, 04.07.2017
Datum Zeit Temp. Aussen Temp. o. S. +5cm Feuchte Auss BlattFeu 1 Luftdruck Regen Sonnenschein Regendauer Solar Windben Empfang
04.07.2017 00:00 18,4 C 17,8 C 16,7 C 73 % 0 lf 1019,2 hPa 0,0 l/m 0 min 0 min 0 W/m 10,5 km/h (2 Bft) 91,49 %
04.07.2017 00:02 18,4 C 17,8 C 16,7 C 73 % 0 lf 1019,2 hPa 0,0 l/m 0 min 0 min 0 W/m 8,4 km/h (2 Bft) 95,45 %
04.07.2017 00:04 18,4 C 17,8 C 16,7 C 73 % 0 lf 1019,2 hPa 0,0 l/m 0 min 0 min 0 W/m 8,4 km/h (2 Bft) 95,74 %
04.07.2017 00:06 18,4 C 17,8 C 16,7 C 72 % 0 lf 1019,2 hPa 0,0 l/m 0 min 0 min 0 W/m 8,4 km/h (2 Bft) 100,00 %
04.07.2017 00:10 18,3 C 17,8 C 16,7 C 72 % 0 lf 1019,2 hPa 0,0 l/m 0 min 0 min 0 W/m 10,5 km/h (2 Bft) 98,95 %
04.07.2017 00:12 18,3 C 17,8 C 16,7 C 72 % 0 lf 1019,3 hPa 0,0 l/m 0 min 0 min 0 W/m 10,5 km/h (2 Bft) 95,74 %
04.07.2017 00:14 18,3 C 17,8 C 16,7 C 72 % 0 lf 1019,2 hPa 0,0 l/m 0 min 0 min 0 W/m 6,3 km/h (2 Bft) 93,48 %
04.07.2017 00:16 18,3 C 17,8 C 16,7 C 72 % 0 lf 1019,2 hPa 0,0 l/m 0 min 0 min 0 W/m 8,4 km/h (2 Bft) 91,49 %
04.07.2017 00:18 18,3 C 17,8 C 16,7 C 72 % 0 lf 1019,2 hPa 0,0 l/m 0 min 0 min 0 W/m 8,4 km/h (2 Bft) 91,49 %
04.07.2017 00:20 18,3 C 17,8 C 16,7 C 72 % 0 lf 1019,3 hPa 0,0 l/m 0 min 0 min 0 W/m 8,4 km/h (2 Bft) 93,62 %
04.07.2017 00:22 18,3 C 17,8 C 16,7 C 72 % 0 lf 1019,4 hPa 0,0 l/m 0 min 0 min 0 W/m 6,3 km/h (2 Bft) 91,49 %
04.07.2017 00:24 18,2 C 17,8 C 16,7 C 71 % 0 lf 1019,4 hPa 0,0 l/m 0 min 0 min 0 W/m 12,6 km/h (3 Bft) 93,62 %
04.07.2017 00:26 18,2 C 17,8 C 16,7 C 71 % 0 lf 1019,3 hPa 0,0 l/m 0 min 0 min 0 W/m 12,6 km/h (3 Bft) 89,13 %
04.07.2017 00:28 18,2 C 17,8 C 16,7 C 71 % 0 lf 1019,4 hPa 0,0 l/m 0 min 0 min 0 W/m 8,4 km/h (2 Bft) 93,62 %
04.07.2017 00:30 18,2 C 17,8 C 16,7 C 71 % 0 lf 1019,4 hPa 0,0 l/m 0 min 0 min 0 W/m 10,5 km/h (2 Bft) 95,74 %
04.07.2017 00:32 18,2 C 17,8 C 16,7 C 71 % 0 lf 1019,4 hPa 0,0 l/m 0 min 0 min 0 W/m 12,6 km/h (3 Bft) 95,74 %
04.07.2017 00:34 18,2 C 17,8 C 16,7 C 71 % 0 lf 1019,4 hPa 0,0 l/m 0 min 0 min 0 W/m 6,3 km/h (2 Bft) 95,74 %
04.07.2017 00:36 18,2 C 17,8 C 16,7 C 71 % 0 lf 1019,4 hPa 0,0 l/m 0 min 0 min 0 W/m 6,3 km/h (2 Bft) 89,36 %
04.07.2017 00:38 18,2 C 17,8 C 16,7 C 71 % 0 lf 1019,3 hPa 0,0 l/m 0 min 0 min 0 W/m 8,4 km/h (2 Bft) 93,48 %
04.07.2017 00:40 18,2 C 17,8 C 16,7 C 71 % 0 lf 1019,3 hPa 0,0 l/m 0 min 0 min 0 W/m 8,4 km/h (2 Bft) 91,49 %
04.07.2017 00:42 18,2 C 17,8 C 16,7 C 71 % 0 lf 1019,3 hPa 0,0 l/m 0 min 0 min 0 W/m 10,5 km/h (2 Bft) 95,74 %
04.07.2017 00:44 18,2 C 17,8 C 16,7 C 71 % 0 lf 1019,4 hPa 0,0 l/m 0 min 0 min 0 W/m 8,4 km/h (2 Bft) 91,49 %
04.07.2017 00:46 18,1 C 17,8 C 16,7 C 71 % 0 lf 1019,4 hPa 0,0 l/m 0 min 0 min 0 W/m 10,5 km/h (2 Bft) 95,74 %
04.07.2017 00:48 18,1 C 17,8 C 16,7 C 71 % 0 lf 1019,4 hPa 0,0 l/m 0 min 0 min 0 W/m 8,4 km/h (2 Bft) 93,62 %
04.07.2017 00:50 18,1 C 17,8 C 16,7 C 71 % 0 lf 1019,4 hPa 0,0 l/m 0 min 0 min 0 W/m 8,4 km/h (2 Bft) 89,13 %
04.07.2017 00:52 18,1 C 17,8 C 16,7 C 71 % 0 lf 1019,4 hPa 0,0 l/m 0 min 0 min 0 W/m 6,3 km/h (2 Bft) 93,62 %
04.07.2017 00:54 18,1 C 17,8 C 16,1 C 71 % 0 lf 1019,4 hPa 0,0 l/m 0 min 0 min 0 W/m 8,4 km/h (2 Bft) 91,49 %
04.07.2017 00:56 18,1 C 17,8 C 16,7 C 71 % 0 lf 1019,4 hPa 0,0 l/m 0 min 0 min 0 W/m 10,5 km/h (2 Bft) 93,62 %
04.07.2017 00:58 18,1 C 17,8 C 16,1 C 71 % 0 lf 1019,4 hPa 0,0 l/m 0 min 0 min 0 W/m 10,5 km/h (2 Bft) 93,62 %
04.07.2017 01:00 18,1 C 17,8 C 16,1 C 71 % 0 lf 1019,4 hPa 0,0 l/m 0 min 0 min 0 W/m 8,4 km/h (2 Bft) 93,62 %
04.07.2017 01:02 18,1 C 17,2 C 16,1 C 72 % 0 lf 1019,4 hPa 0,0 l/m 0 min 0 min 0 W/m 8,4 km/h (2 Bft) 95,65 %
04.07.2017 01:04 18,1 C 17,2 C 16,1 C 72 % 0 lf 1019,4 hPa 0,0 l/m 0 min 0 min 0 W/m 6,3 km/h (2 Bft) 95,74 %
04.07.2017 01:06 18,1 C 17,2 C 16,1 C 72 % 0 lf 1019,5 hPa 0,0 l/m 0 min 0 min 0 W/m 6,3 km/h (2 Bft) 95,74 %
04.07.2017 01:08 18,0 C 17,2 C 16,1 C 72 % 0 lf 1019,5 hPa 0,0 l/m 0 min 0 min 0 W/m 8,4 km/h (2 Bft) 93,62 %
04.07.2017 01:10 18,0 C 17,2 C 16,1 C 72 % 0 lf 1019,4 hPa 0,0 l/m 0 min 0 min 0 W/m 12,6 km/h (3 Bft) 95,74 %
04.07.2017 01:12 18,0 C 17,2 C 16,1 C 72 % 0 lf 1019,4 hPa 0,0 l/m 0 min 0 min 0 W/m 12,6 km/h (3 Bft) 93,48 %
04.07.2017 01:14 18,0 C 17,2 C 16,1 C 72 % 0 lf 1019,3 hPa 0,0 l/m 0 min 0 min 0 W/m 8,4 km/h (2 Bft) 97,87 %
04.07.2017 01:16 17,9 C 17,2 C 16,1 C 72 % 0 lf 1019,4 hPa 0,0 l/m 0 min 0 min 0 W/m 6,3 km/h (2 Bft) 95,74 %
04.07.2017 01:18 17,9 C 17,2 C 16,1 C 72 % 0 lf 1019,4 hPa 0,0 l/m 0 min 0 min 0 W/m 10,5 km/h (2 Bft) 95,74 %
04.07.2017 01:20 17,9 C 17,2 C 16,1 C 72 % 0 lf 1019,5 hPa 0,0 l/m 0 min 0 min 0 W/m 8,4 km/h (2 Bft) 97,87 %
04.07.2017 01:22 17,9 C 17,2 C 16,1 C 72 % 0 lf 1019,5 hPa 0,0 l/m 0 min 0 min 0 W/m 12,6 km/h (3 Bft) 97,87 %
04.07.2017 01:24 17,9 C 17,2 C 16,1 C 72 % 0 lf 1019,5 hPa 0,0 l/m 0 min 0 min 0 W/m 8,4 km/h (2 Bft) 95,65 %
04.07.2017 01:26 17,8 C 17,2 C 16,1 C 72 % 0 lf 1019,5 hPa 0,0 l/m 0 min 0 min 0 W/m 8,4 km/h (2 Bft) 100,00 %
04.07.2017 01:28 17,8 C 17,2 C 16,1 C 72 % 0 lf 1019,5 hPa 0,0 l/m 0 min 0 min 0 W/m 6,3 km/h (2 Bft) 100,00 %
04.07.2017 01:30 17,8 C 17,2 C 16,1 C 72 % 0 lf 1019,4 hPa 0,0 l/m 0 min 0 min 0 W/m 8,4 km/h (2 Bft) 100,00 %
04.07.2017 01:32 17,8 C 17,2 C 16,1 C 72 % 0 lf 1019,5 hPa 0,0 l/m 0 min 0 min 0 W/m 6,3 km/h (2 Bft) 100,00 %
04.07.2017 01:34 17,8 C 17,2 C 16,1 C 73 % 0 lf 1019,5 hPa 0,0 l/m 0 min 0 min 0 W/m 6,3 km/h (2 Bft) 100,00 %
04.07.2017 01:36 17,8 C 17,2 C 16,1 C 73 % 0 lf 1019,4 hPa 0,0 l/m 0 min 0 min 0 W/m 6,3 km/h (2 Bft) 100,00 %
04.07.2017 01:38 17,8 C 17,2 C 16,1 C 73 % 0 lf 1019,5 hPa 0,0 l/m 0 min 0 min 0 W/m 8,4 km/h (2 Bft) 100,00 %
04.07.2017 01:40 17,8 C 17,2 C 16,1 C 73 % 0 lf 1019,5 hPa 0,0 l/m 0 min 0 min 0 W/m 4,2 km/h (1 Bft) 100,00 %
04.07.2017 01:42 17,8 C 17,2 C 15,6 C 73 % 0 lf 1019,5 hPa 0,0 l/m 0 min 0 min 0 W/m 6,3 km/h (2 Bft) 100,00 %
04.07.2017 01:44 17,7 C 16,7 C 15,6 C 73 % 0 lf 1019,5 hPa 0,0 l/m 0 min 0 min 0 W/m 4,2 km/h (1 Bft) 97,87 %
04.07.2017 01:46 17,7 C 16,7 C 15,6 C 73 % 0 lf 1019,4 hPa 0,0 l/m 0 min 0 min 0 W/m 6,3 km/h (2 Bft) 100,00 %
04.07.2017 01:48 17,7 C 16,7 C 15,6 C 73 % 0 lf 1019,5 hPa 0,0 l/m 0 min 0 min 0 W/m 4,2 km/h (1 Bft) 97,87 %
04.07.2017 01:50 17,7 C 16,7 C 15,6 C 73 % 0 lf 1019,5 hPa 0,0 l/m 0 min 0 min 0 W/m 2,1 km/h (1 Bft) 98,28 %
04.07.2017 01:52 17,7 C 16,7 C 15,6 C 73 % 0 lf 1019,5 hPa 0,0 l/m 0 min 0 min 0 W/m 4,2 km/h (1 Bft) 100,00 %
04.07.2017 01:54 17,7 C 16,7 C 15,6 C 74 % 0 lf 1019,6 hPa 0,0 l/m 0 min 0 min 0 W/m 10,5 km/h (2 Bft) 97,87 %
04.07.2017 01:56 17,7 C 16,7 C 15,6 C 74 % 0 lf 1019,5 hPa 0,0 l/m 0 min 0 min 0 W/m 6,3 km/h (2 Bft) 100,00 %
04.07.2017 01:58 17,7 C 16,7 C 15,6 C 74 % 0 lf 1019,6 hPa 0,0 l/m 0 min 0 min 0 W/m 4,2 km/h (1 Bft) 100,00 %
04.07.2017 02:00 17,7 C 16,7 C 15,6 C 74 % 0 lf 1019,5 hPa 0,0 l/m 0 min 0 min 0 W/m 4,2 km/h (1 Bft) 100,00 %
04.07.2017 02:02 17,6 C 16,7 C 15,0 C 74 % 0 lf 1019,5 hPa 0,0 l/m 0 min 0 min 0 W/m 6,3 km/h (2 Bft) 95,65 %
04.07.2017 02:04 17,6 C 16,7 C 15,0 C 74 % 0 lf 1019,5 hPa 0,0 l/m 0 min 0 min 0 W/m 6,3 km/h (2 Bft) 97,87 %
04.07.2017 02:06 17,6 C 16,1 C 15,0 C 75 % 0 lf 1019,4 hPa 0,0 l/m 0 min 0 min 0 W/m 8,4 km/h (2 Bft) 100,00 %
04.07.2017 02:08 17,6 C 16,1 C 14,4 C 75 % 0 lf 1019,5 hPa 0,0 l/m 0 min 0 min 0 W/m 8,4 km/h (2 Bft) 97,87 %
04.07.2017 02:10 17,5 C 16,1 C 14,4 C 75 % 0 lf 1019,5 hPa 0,0 l/m 0 min 0 min 0 W/m 6,3 km/h (2 Bft) 100,00 %
04.07.2017 02:12 17,5 C 16,1 C 14,4 C 75 % 0 lf 1019,5 hPa 0,0 l/m 0 min 0 min 0 W/m 4,2 km/h (1 Bft) 97,87 %
04.07.2017 02:14 17,5 C 16,1 C 14,4 C 75 % 0 lf 1019,4 hPa 0,0 l/m 0 min 0 min 0 W/m 4,2 km/h (1 Bft) 100,00 %
04.07.2017 02:16 17,4 C 16,1 C 14,4 C 75 % 0 lf 1019,4 hPa 0,0 l/m 0 min 0 min 0 W/m 4,2 km/h (1 Bft) 97,87 %
04.07.2017 02:18 17,4 C 16,1 C 15,0 C 75 % 0 lf 1019,4 hPa 0,0 l/m 0 min 0 min 0 W/m 4,2 km/h (1 Bft) 97,87 %
04.07.2017 02:20 17,4 C 16,1 C 15,0 C 76 % 0 lf 1019,4 hPa 0,0 l/m 0 min 0 min 0 W/m 6,3 km/h (2 Bft) 100,00 %
04.07.2017 02:22 17,4 C 16,1 C 14,4 C 76 % 0 lf 1019,4 hPa 0,0 l/m 0 min 0 min 0 W/m 4,2 km/h (1 Bft) 97,14 %
04.07.2017 02:24 17,3 C 16,1 C 14,4 C 76 % 0 lf 1019,3 hPa 0,0 l/m 0 min 0 min 0 W/m 4,2 km/h (1 Bft) 100,00 %
04.07.2017 02:26 17,3 C 16,1 C 14,4 C 76 % 0 lf 1019,4 hPa 0,0 l/m 0 min 0 min 0 W/m 4,2 km/h (1 Bft) 97,83 %
04.07.2017 02:28 17,3 C 16,1 C 14,4 C 76 % 0 lf 1019,3 hPa 0,0 l/m 0 min 0 min 0 W/m 4,2 km/h (1 Bft) 100,00 %
04.07.2017 02:30 17,2 C 16,1 C 14,4 C 76 % 0 lf 1019,3 hPa 0,0 l/m 0 min 0 min 0 W/m 4,2 km/h (1 Bft) 100,00 %
04.07.2017 02:32 17,2 C 16,1 C 15,0 C 77 % 0 lf 1019,3 hPa 0,0 l/m 0 min 0 min 0 W/m 2,1 km/h (1 Bft) 97,87 %
04.07.2017 02:34 17,2 C 16,1 C 15,0 C 77 % 0 lf 1019,4 hPa 0,0 l/m 0 min 0 min 0 W/m 4,2 km/h (1 Bft) 97,87 %
04.07.2017 02:36 17,2 C 16,1 C 15,0 C 77 % 0 lf 1019,3 hPa 0,0 l/m 0 min 0 min 0 W/m 4,2 km/h (1 Bft) 97,87 %
04.07.2017 02:38 17,1 C 16,1 C 15,0 C 77 % 0 lf 1019,3 hPa 0,0 l/m 0 min 0 min 0 W/m 4,2 km/h (1 Bft) 93,48 %
04.07.2017 02:40 17,1 C 16,1 C 15,0 C 77 % 0 lf 1019,3 hPa 0,0 l/m 0 min 0 min 0 W/m 4,2 km/h (1 Bft) 97,87 %
04.07.2017 02:42 17,1 C 16,1 C 15,0 C 77 % 0 lf 1019,2 hPa 0,0 l/m 0 min 0 min 0 W/m 6,3 km/h (2 Bft) 95,74 %
04.07.2017 02:44 17,1 C 16,1 C 15,0 C 77 % 0 lf 1019,2 hPa 0,0 l/m 0 min 0 min 0 W/m 6,3 km/h (2 Bft) 97,87 %
04.07.2017 02:46 17,0 C 16,1 C 14,4 C 77 % 0 lf 1019,2 hPa 0,0 l/m 0 min 0 min 0 W/m 4,2 km/h (1 Bft) 97,87 %
04.07.2017 02:48 17,0 C 16,1 C 14,4 C 78 % 0 lf 1019,2 hPa 0,0 l/m 0 min 0 min 0 W/m 6,3 km/h (2 Bft) 95,74 %
04.07.2017 02:50 17,0 C 16,1 C 14,4 C 78 % 0 lf 1019,1 hPa 0,0 l/m 0 min 0 min 0 W/m 4,2 km/h (1 Bft) 93,10 %
04.07.2017 02:52 16,9 C 15,6 C 14,4 C 78 % 0 lf 1019,1 hPa 0,0 l/m 0 min 0 min 0 W/m 4,2 km/h (1 Bft) 94,29 %
04.07.2017 02:54 16,9 C 15,6 C 14,4 C 78 % 0 lf 1019,1 hPa 0,0 l/m 0 min 0 min 0 W/m 4,2 km/h (1 Bft) 95,74 %
04.07.2017 02:56 16,9 C 15,6 C 13,9 C 79 % 0 lf 1019,1 hPa 0,0 l/m 0 min 0 min 0 W/m 4,2 km/h (1 Bft) 91,49 %
04.07.2017 02:58 16,9 C 15,6 C 13,9 C 79 % 0 lf 1019,1 hPa 0,0 l/m 0 min 0 min 0 W/m 4,2 km/h (1 Bft) 93,62 %
04.07.2017 03:00 16,8 C 15,6 C 13,9 C 79 % 0 lf 1019,2 hPa 0,0 l/m 0 min 0 min 0 W/m 6,3 km/h (2 Bft) 93,48 %
04.07.2017 03:02 16,8 C 15,6 C 13,9 C 79 % 0 lf 1019,2 hPa 0,0 l/m 0 min 0 min 3 W/m 4,2 km/h (1 Bft) 93,22 %
04.07.2017 03:04 16,8 C 15,6 C 13,9 C 79 % 0 lf 1019,2 hPa 0,0 l/m 0 min 0 min 0 W/m 0,0 km/h (0 Bft) 91,43 %
04.07.2017 03:06 16,7 C 15,6 C 13,9 C 79 % 0 lf 1019,2 hPa 0,0 l/m 0 min 0 min 0 W/m 2,1 km/h (1 Bft) 93,62 %
04.07.2017 03:08 16,7 C 15,0 C 13,9 C 79 % 0 lf 1019,1 hPa 0,0 l/m 0 min 0 min 0 W/m 0,0 km/h (0 Bft) 91,49 %
04.07.2017 03:10 16,7 C 15,0 C 13,9 C 79 % 0 lf 1019,1 hPa 0,0 l/m 0 min 0 min 0 W/m 0,0 km/h (0 Bft) 93,62 %
04.07.2017 03:12 16,6 C 15,0 C 13,9 C 79 % 0 lf 1019,1 hPa 0,0 l/m 0 min 0 min 0 W/m 0,0 km/h (0 Bft) 93,48 %
04.07.2017 03:14 16,6 C 15,0 C 13,3 C 79 % 0 lf 1019,1 hPa 0,0 l/m 0 min 0 min 3 W/m 0,0 km/h (0 Bft) 95,74 %
04.07.2017 03:16 16,6 C 15,0 C 13,9 C 80 % 0 lf 1019,1 hPa 0,0 l/m 0 min 0 min 5 W/m 0,0 km/h (0 Bft) 89,36 %
04.07.2017 03:18 16,5 C 15,6 C 13,9 C 80 % 0 lf 1019,2 hPa 0,0 l/m 0 min 0 min 1 W/m 0,0 km/h (0 Bft) 93,62 %
04.07.2017 03:20 16,4 C 15,6 C 13,9 C 80 % 0 lf 1019,2 hPa 0,0 l/m 0 min 0 min 0 W/m 0,0 km/h (0 Bft) 93,22 %
04.07.2017 03:22 16,4 C 15,0 C 13,9 C 80 % 0 lf 1019,1 hPa 0,0 l/m 0 min 0 min 0 W/m 0,0 km/h (0 Bft) 94,29 %
04.07.2017 03:24 16,4 C 15,0 C 13,9 C 80 % 0 lf 1019,2 hPa 0,0 l/m 0 min 0 min 0 W/m 0,0 km/h (0 Bft) 95,65 %
04.07.2017 03:26 16,3 C 15,0 C 13,3 C 81 % 0 lf 1019,2 hPa 0,0 l/m 0 min 0 min 3 W/m 0,0 km/h (0 Bft) 95,74 %
04.07.2017 03:28 16,3 C 15,0 C 13,3 C 81 % 0 lf 1019,1 hPa 0,0 l/m 0 min 0 min 5 W/m 0,0 km/h (0 Bft) 97,87 %
04.07.2017 03:30 16,3 C 15,0 C 13,3 C 81 % 0 lf 1019,2 hPa 0,0 l/m 0 min 0 min 0 W/m 2,1 km/h (1 Bft) 97,87 %
04.07.2017 03:32 16,2 C 15,0 C 13,3 C 81 % 0 lf 1019,2 hPa 0,0 l/m 0 min 0 min 0 W/m 6,3 km/h (2 Bft) 97,87 %
04.07.2017 03:34 16,2 C 15,0 C 13,3 C 81 % 0 lf 1019,2 hPa 0,0 l/m 0 min 0 min 5 W/m 4,2 km/h (1 Bft) 91,49 %
04.07.2017 03:36 16,2 C 15,0 C 13,3 C 81 % 0 lf 1019,1 hPa 0,0 l/m 0 min 0 min 5 W/m 6,3 km/h (2 Bft) 95,65 %
04.07.2017 03:38 16,2 C 15,0 C 13,3 C 82 % 0 lf 1019,2 hPa 0,0 l/m 0 min 0 min 5 W/m 4,2 km/h (1 Bft) 95,74 %
04.07.2017 03:40 16,1 C 15,0 C 13,3 C 81 % 0 lf 1019,2 hPa 0,0 l/m 0 min 0 min 5 W/m 4,2 km/h (1 Bft) 95,74 %
04.07.2017 03:42 16,1 C 15,0 C 13,3 C 81 % 0 lf 1019,2 hPa 0,0 l/m 0 min 0 min 5 W/m 4,2 km/h (1 Bft) 97,87 %
04.07.2017 03:44 16,1 C 15,0 C 13,9 C 81 % 0 lf 1019,2 hPa 0,0 l/m 0 min 0 min 5 W/m 4,2 km/h (1 Bft) 97,87 %
04.07.2017 03:46 16,0 C 15,0 C 13,9 C 82 % 0 lf 1019,2 hPa 0,0 l/m 0 min 0 min 5 W/m 2,1 km/h (1 Bft) 97,87 %
04.07.2017 03:48 16,0 C 15,0 C 13,9 C 82 % 0 lf 1019,2 hPa 0,0 l/m 0 min 0 min 5 W/m 0,0 km/h (0 Bft) 95,65 %
04.07.2017 03:50 16,0 C 15,0 C 13,9 C 82 % 0 lf 1019,2 hPa 0,0 l/m 0 min 0 min 3 W/m 0,0 km/h (0 Bft) 98,31 %
04.07.2017 03:52 15,9 C 15,0 C 13,3 C 82 % 0 lf 1019,2 hPa 0,0 l/m 0 min 0 min 5 W/m 6,3 km/h (2 Bft) 100,00 %
04.07.2017 03:54 15,9 C 15,0 C 13,9 C 83 % 0 lf 1019,2 hPa 0,0 l/m 0 min 0 min 5 W/m 6,3 km/h (2 Bft) 100,00 %
04.07.2017 03:56 15,9 C 15,0 C 13,9 C 83 % 0 lf 1019,2 hPa 0,0 l/m 0 min 0 min 5 W/m 4,2 km/h (1 Bft) 95,74 %
04.07.2017 03:58 15,9 C 15,0 C 13,9 C 83 % 0 lf 1019,2 hPa 0,0 l/m 0 min 0 min 5 W/m 6,3 km/h (2 Bft) 97,87 %
04.07.2017 04:00 15,8 C 15,0 C 13,9 C 83 % 0 lf 1019,2 hPa 0,0 l/m 0 min 0 min 3 W/m 6,3 km/h (2 Bft) 97,83 %
04.07.2017 04:02 15,8 C 15,0 C 13,9 C 83 % 0 lf 1019,2 hPa 0,0 l/m 0 min 0 min 3 W/m 6,3 km/h (2 Bft) 100,00 %
04.07.2017 04:04 15,8 C 15,0 C 13,9 C 83 % 0 lf 1019,2 hPa 0,0 l/m 0 min 0 min 5 W/m 6,3 km/h (2 Bft) 97,87 %
04.07.2017 04:06 15,8 C 15,0 C 13,3 C 83 % 0 lf 1019,2 hPa 0,0 l/m 0 min 0 min 0 W/m 8,4 km/h (2 Bft) 100,00 %
04.07.2017 04:08 15,7 C 15,0 C 13,3 C 83 % 0 lf 1019,2 hPa 0,0 l/m 0 min 0 min 0 W/m 8,4 km/h (2 Bft) 97,87 %
04.07.2017 04:10 15,7 C 14,4 C 13,3 C 84 % 0 lf 1019,2 hPa 0,0 l/m 0 min 0 min 4 W/m 6,3 km/h (2 Bft) 97,83 %
04.07.2017 04:12 15,7 C 14,4 C 13,3 C 84 % 0 lf 1019,3 hPa 0,0 l/m 0 min 0 min 5 W/m 8,4 km/h (2 Bft) 93,62 %
04.07.2017 04:14 15,7 C 14,4 C 13,3 C 84 % 0 lf 1019,3 hPa 0,0 l/m 0 min 0 min 1 W/m 6,3 km/h (2 Bft) 97,87 %
04.07.2017 04:16 15,7 C 14,4 C 13,3 C 84 % 0 lf 1019,2 hPa 0,0 l/m 0 min 0 min 1 W/m 10,5 km/h (2 Bft) 97,87 %
04.07.2017 04:18 15,6 C 14,4 C 13,9 C 84 % 0 lf 1019,3 hPa 0,0 l/m 0 min 0 min 5 W/m 8,4 km/h (2 Bft) 93,62 %
04.07.2017 04:20 15,6 C 15,0 C 13,9 C 85 % 0 lf 1019,2 hPa 0,0 l/m 0 min 0 min 5 W/m 10,5 km/h (2 Bft) 96,55 %
04.07.2017 04:22 15,6 C 15,0 C 13,9 C 85 % 0 lf 1019,2 hPa 0,0 l/m 0 min 0 min 5 W/m 8,4 km/h (2 Bft) 97,14 %
04.07.2017 04:24 15,6 C 15,0 C 13,9 C 85 % 0 lf 1019,2 hPa 0,0 l/m 0 min 0 min 2 W/m 8,4 km/h (2 Bft) 97,87 %
04.07.2017 04:26 15,5 C 15,0 C 13,9 C 85 % 0 lf 1019,2 hPa 0,0 l/m 0 min 0 min 0 W/m 8,4 km/h (2 Bft) 93,62 %
04.07.2017 04:28 15,5 C 15,0 C 13,3 C 85 % 0 lf 1019,2 hPa 0,0 l/m 0 min 0 min 0 W/m 10,5 km/h (2 Bft) 93,62 %
04.07.2017 04:30 15,5 C 14,4 C 13,3 C 86 % 0 lf 1019,2 hPa 0,0 l/m 0 min 0 min 0 W/m 8,4 km/h (2 Bft) 97,87 %
04.07.2017 04:32 15,5 C 14,4 C 13,3 C 86 % 0 lf 1019,2 hPa 0,0 l/m 0 min 0 min 0 W/m 10,5 km/h (2 Bft) 97,87 %
04.07.2017 04:34 15,4 C 14,4 C 13,3 C 86 % 0 lf 1019,2 hPa 0,0 l/m 0 min 0 min 0 W/m 8,4 km/h (2 Bft) 97,83 %
04.07.2017 04:36 15,4 C 14,4 C 13,3 C 86 % 0 lf 1019,2 hPa 0,0 l/m 0 min 0 min 0 W/m 6,3 km/h (2 Bft) 91,49 %
04.07.2017 04:38 15,4 C 14,4 C 13,9 C 86 % 0 lf 1019,3 hPa 0,0 l/m 0 min 0 min 0 W/m 4,2 km/h (1 Bft) 97,87 %
04.07.2017 04:40 15,4 C 14,4 C 13,9 C 87 % 0 lf 1019,3 hPa 0,0 l/m 0 min 0 min 0 W/m 8,4 km/h (2 Bft) 97,87 %
04.07.2017 04:42 15,4 C 15,0 C 13,9 C 87 % 0 lf 1019,3 hPa 0,0 l/m 0 min 0 min 0 W/m 8,4 km/h (2 Bft) 95,74 %
04.07.2017 04:44 15,4 C 14,4 C 13,9 C 87 % 0 lf 1019,4 hPa 0,0 l/m 0 min 0 min 0 W/m 6,3 km/h (2 Bft) 93,62 %
04.07.2017 04:46 15,4 C 15,0 C 13,9 C 87 % 0 lf 1019,4 hPa 0,0 l/m 0 min 0 min 0 W/m 8,4 km/h (2 Bft) 94,83 %
04.07.2017 04:48 15,3 C 15,0 C 13,9 C 87 % 0 lf 1019,4 hPa 0,0 l/m 0 min 0 min 0 W/m 8,4 km/h (2 Bft) 94,29 %
04.07.2017 04:50 15,3 C 15,0 C 13,9 C 87 % 0 lf 1019,4 hPa 0,0 l/m 0 min 0 min 0 W/m 8,4 km/h (2 Bft) 96,61 %
04.07.2017 04:52 15,3 C 15,0 C 13,9 C 87 % 0 lf 1019,4 hPa 0,0 l/m 0 min 0 min 0 W/m 12,6 km/h (3 Bft) 94,29 %
04.07.2017 04:54 15,3 C 15,0 C 13,9 C 87 % 0 lf 1019,5 hPa 0,0 l/m 0 min 0 min 0 W/m 8,4 km/h (2 Bft) 93,62 %
04.07.2017 04:56 15,3 C 15,0 C 13,9 C 88 % 0 lf 1019,5 hPa 0,0 l/m 0 min 0 min 0 W/m 8,4 km/h (2 Bft) 95,74 %
04.07.2017 04:58 15,3 C 15,0 C 13,9 C 88 % 0 lf 1019,5 hPa 0,0 l/m 0 min 0 min 0 W/m 10,5 km/h (2 Bft) 93,48 %
04.07.2017 05:00 15,3 C 15,0 C 13,9 C 88 % 0 lf 1019,5 hPa 0,0 l/m 0 min 0 min 0 W/m 8,4 km/h (2 Bft) 95,74 %
04.07.2017 05:02 15,3 C 15,0 C 13,9 C 88 % 0 lf 1019,5 hPa 0,0 l/m 0 min 0 min 0 W/m 12,6 km/h (3 Bft) 95,74 %
04.07.2017 05:04 15,3 C 15,0 C 13,9 C 88 % 0 lf 1019,4 hPa 0,0 l/m 0 min 0 min 0 W/m 8,4 km/h (2 Bft) 97,87 %
04.07.2017 05:06 15,3 C 15,0 C 13,9 C 88 % 0 lf 1019,5 hPa 0,0 l/m 0 min 0 min 0 W/m 10,5 km/h (2 Bft) 97,87 %
04.07.2017 05:08 15,2 C 15,0 C 13,9 C 88 % 0 lf 1019,5 hPa 0,0 l/m 0 min 0 min 0 W/m 12,6 km/h (3 Bft) 97,87 %
04.07.2017 05:10 15,2 C 15,0 C 13,9 C 88 % 0 lf 1019,4 hPa 0,0 l/m 0 min 0 min 0 W/m 10,5 km/h (2 Bft) 94,83 %
04.07.2017 05:12 15,2 C 15,0 C 13,9 C 88 % 0 lf 1019,4 hPa 0,0 l/m 0 min 0 min 0 W/m 12,6 km/h (3 Bft) 94,29 %
04.07.2017 05:14 15,2 C 15,0 C 13,9 C 88 % 0 lf 1019,3 hPa 0,0 l/m 0 min 0 min 0 W/m 10,5 km/h (2 Bft) 95,74 %
04.07.2017 05:16 15,2 C 15,0 C 13,9 C 88 % 0 lf 1019,3 hPa 0,0 l/m 0 min 0 min 0 W/m 6,3 km/h (2 Bft) 95,74 %
04.07.2017 05:18 15,2 C 14,4 C 13,3 C 88 % 0 lf 1019,4 hPa 0,0 l/m 0 min 0 min 0 W/m 6,3 km/h (2 Bft) 100,00 %
04.07.2017 05:20 15,2 C 14,4 C 13,3 C 88 % 0 lf 1019,4 hPa 0,0 l/m 0 min 0 min 0 W/m 8,4 km/h (2 Bft) 98,28 %
04.07.2017 05:22 15,2 C 14,4 C 13,3 C 88 % 0 lf 1019,4 hPa 0,0 l/m 0 min 0 min 0 W/m 12,6 km/h (3 Bft) 97,14 %
04.07.2017 05:24 15,1 C 14,4 C 13,3 C 88 % 0 lf 1019,4 hPa 0,0 l/m 0 min 0 min 1 W/m 10,5 km/h (2 Bft) 100,00 %
04.07.2017 05:26 15,1 C 14,4 C 13,3 C 88 % 0 lf 1019,4 hPa 0,0 l/m 0 min 0 min 5 W/m 10,5 km/h (2 Bft) 95,74 %
04.07.2017 05:28 15,1 C 14,4 C 13,3 C 89 % 0 lf 1019,4 hPa 0,0 l/m 0 min 0 min 5 W/m 10,5 km/h (2 Bft) 95,74 %
04.07.2017 05:30 15,1 C 14,4 C 13,3 C 89 % 0 lf 1019,3 hPa 0,0 l/m 0 min 0 min 5 W/m 8,4 km/h (2 Bft) 97,87 %
04.07.2017 05:32 15,1 C 14,4 C 13,3 C 89 % 0 lf 1019,4 hPa 0,0 l/m 0 min 0 min 7 W/m 10,5 km/h (2 Bft) 97,87 %
04.07.2017 05:34 15,0 C 14,4 C 13,3 C 89 % 0 lf 1019,4 hPa 0,0 l/m 0 min 0 min 7 W/m 8,4 km/h (2 Bft) 95,65 %
04.07.2017 05:36 15,0 C 14,4 C 13,3 C 89 % 0 lf 1019,4 hPa 0,0 l/m 0 min 0 min 7 W/m 12,6 km/h (3 Bft) 97,87 %
04.07.2017 05:38 15,0 C 14,4 C 13,3 C 89 % 0 lf 1019,3 hPa 0,0 l/m 0 min 0 min 7 W/m 8,4 km/h (2 Bft) 97,87 %
04.07.2017 05:40 14,9 C 14,4 C 13,3 C 89 % 0 lf 1019,4 hPa 0,0 l/m 0 min 0 min 7 W/m 8,4 km/h (2 Bft) 97,87 %
04.07.2017 05:42 14,9 C 14,4 C 13,3 C 89 % 0 lf 1019,3 hPa 0,0 l/m 0 min 0 min 8 W/m 8,4 km/h (2 Bft) 95,74 %
04.07.2017 05:44 14,9 C 14,4 C 13,3 C 89 % 0 lf 1019,4 hPa 0,0 l/m 0 min 0 min 9 W/m 12,6 km/h (3 Bft) 97,83 %
04.07.2017 05:46 14,9 C 14,4 C 13,3 C 89 % 0 lf 1019,4 hPa 0,0 l/m 0 min 0 min 9 W/m 10,5 km/h (2 Bft) 95,74 %
04.07.2017 05:48 14,9 C 14,4 C 13,3 C 89 % 0 lf 1019,4 hPa 0,0 l/m 0 min 0 min 10 W/m 8,4 km/h (2 Bft) 97,87 %
04.07.2017 05:50 14,9 C 14,4 C 13,3 C 89 % 0 lf 1019,4 hPa 0,0 l/m 0 min 0 min 11 W/m 10,5 km/h (2 Bft) 98,31 %
04.07.2017 05:52 14,9 C 14,4 C 13,9 C 89 % 0 lf 1019,4 hPa 0,0 l/m 0 min 0 min 11 W/m 10,5 km/h (2 Bft) 97,14 %
04.07.2017 05:54 14,8 C 14,4 C 13,9 C 89 % 0 lf 1019,5 hPa 0,0 l/m 0 min 0 min 11 W/m 12,6 km/h (3 Bft) 93,62 %
04.07.2017 05:56 14,8 C 14,4 C 13,9 C 90 % 0 lf 1019,5 hPa 0,0 l/m 0 min 0 min 9 W/m 14,6 km/h (3 Bft) 95,65 %
04.07.2017 05:58 14,8 C 15,0 C 13,9 C 90 % 0 lf 1019,5 hPa 0,0 l/m 0 min 0 min 9 W/m 12,6 km/h (3 Bft) 95,74 %
04.07.2017 06:00 14,8 C 15,0 C 13,9 C 90 % 0 lf 1019,5 hPa 0,0 l/m 0 min 0 min 9 W/m 10,5 km/h (2 Bft) 95,74 %
04.07.2017 06:02 14,8 C 15,0 C 13,9 C 90 % 0 lf 1019,5 hPa 0,0 l/m 0 min 0 min 11 W/m 8,4 km/h (2 Bft) 93,62 %
04.07.2017 06:04 14,8 C 15,0 C 13,9 C 90 % 0 lf 1019,5 hPa 0,0 l/m 0 min 0 min 12 W/m 10,5 km/h (2 Bft) 95,74 %
04.07.2017 06:06 14,8 C 15,0 C 13,9 C 90 % 0 lf 1019,6 hPa 0,0 l/m 0 min 0 min 14 W/m 10,5 km/h (2 Bft) 93,62 %
04.07.2017 06:08 14,8 C 15,0 C 13,9 C 90 % 0 lf 1019,6 hPa 0,0 l/m 0 min 0 min 14 W/m 8,4 km/h (2 Bft) 95,74 %
04.07.2017 06:10 14,8 C 15,0 C 13,9 C 90 % 0 lf 1019,6 hPa 0,0 l/m 0 min 0 min 14 W/m 12,6 km/h (3 Bft) 93,62 %
04.07.2017 06:12 14,8 C 15,0 C 13,9 C 90 % 0 lf 1019,6 hPa 0,0 l/m 0 min 0 min 13 W/m 10,5 km/h (2 Bft) 95,74 %
04.07.2017 06:14 14,8 C 15,0 C 13,9 C 90 % 0 lf 1019,6 hPa 0,0 l/m 0 min 0 min 14 W/m 8,4 km/h (2 Bft) 95,74 %
04.07.2017 06:16 14,8 C 15,0 C 13,9 C 90 % 0 lf 1019,6 hPa 0,0 l/m 0 min 0 min 17 W/m 10,5 km/h (2 Bft) 100,00 %
04.07.2017 06:18 14,8 C 15,0 C 13,9 C 90 % 0 lf 1019,6 hPa 0,0 l/m 0 min 0 min 21 W/m 8,4 km/h (2 Bft) 97,87 %
04.07.2017 06:20 14,8 C 15,0 C 13,9 C 90 % 0 lf 1019,6 hPa 0,0 l/m 0 min 0 min 24 W/m 8,4 km/h (2 Bft) 95,65 %
04.07.2017 06:22 14,9 C 15,0 C 14,4 C 90 % 0 lf 1019,6 hPa 0,0 l/m 0 min 0 min 26 W/m 10,5 km/h (2 Bft) 97,87 %
04.07.2017 06:24 14,9 C 15,0 C 14,4 C 90 % 0 lf 1019,7 hPa 0,0 l/m 0 min 0 min 24 W/m 12,6 km/h (3 Bft) 95,74 %
04.07.2017 06:26 14,9 C 15,0 C 14,4 C 90 % 0 lf 1019,6 hPa 0,0 l/m 0 min 0 min 25 W/m 16,7 km/h (3 Bft) 95,74 %
04.07.2017 06:28 14,9 C 15,0 C 14,4 C 90 % 0 lf 1019,6 hPa 0,0 l/m 0 min 0 min 24 W/m 8,4 km/h (2 Bft) 93,62 %
04.07.2017 06:30 14,9 C 15,0 C 14,4 C 90 % 0 lf 1019,7 hPa 0,0 l/m 0 min 0 min 21 W/m 12,6 km/h (3 Bft) 97,87 %
04.07.2017 06:32 14,9 C 15,0 C 14,4 C 90 % 0 lf 1019,7 hPa 0,0 l/m 0 min 0 min 23 W/m 8,4 km/h (2 Bft) 97,83 %
04.07.2017 06:34 14,9 C 15,0 C 14,4 C 90 % 0 lf 1019,7 hPa 0,0 l/m 0 min 0 min 25 W/m 8,4 km/h (2 Bft) 97,87 %
04.07.2017 06:36 14,9 C 15,0 C 14,4 C 90 % 0 lf 1019,7 hPa 0,0 l/m 0 min 0 min 24 W/m 16,7 km/h (3 Bft) 93,62 %
04.07.2017 06:38 14,9 C 15,0 C 14,4 C 90 % 0 lf 1019,7 hPa 0,0 l/m 0 min 0 min 23 W/m 10,5 km/h (2 Bft) 100,00 %
04.07.2017 06:40 14,9 C 15,0 C 14,4 C 90 % 0 lf 1019,8 hPa 0,0 l/m 0 min 0 min 23 W/m 18,8 km/h (3 Bft) 97,87 %
04.07.2017 06:42 14,9 C 15,0 C 14,4 C 90 % 0 lf 1019,8 hPa 0,0 l/m 0 min 0 min 21 W/m 18,8 km/h (3 Bft) 93,62 %
04.07.2017 06:44 14,9 C 15,0 C 14,4 C 90 % 0 lf 1019,8 hPa 0,0 l/m 0 min 0 min 19 W/m 10,5 km/h (2 Bft) 95,65 %
04.07.2017 06:46 14,9 C 15,0 C 14,4 C 90 % 0 lf 1019,8 hPa 0,0 l/m 0 min 0 min 18 W/m 12,6 km/h (3 Bft) 95,74 %
04.07.2017 06:48 14,9 C 15,0 C 14,4 C 90 % 0 lf 1019,8 hPa 0,0 l/m 0 min 0 min 18 W/m 10,5 km/h (2 Bft) 97,87 %
04.07.2017 06:50 14,9 C 15,0 C 14,4 C 90 % 0 lf 1019,8 hPa 0,0 l/m 0 min 0 min 22 W/m 16,7 km/h (3 Bft) 97,87 %
04.07.2017 06:52 14,9 C 15,0 C 14,4 C 90 % 0 lf 1019,8 hPa 0,0 l/m 0 min 0 min 23 W/m 16,7 km/h (3 Bft) 95,74 %
04.07.2017 06:54 15,0 C 15,0 C 14,4 C 90 % 0 lf 1019,8 hPa 0,0 l/m 0 min 0 min 25 W/m 10,5 km/h (2 Bft) 97,83 %
04.07.2017 06:56 15,0 C 15,0 C 14,4 C 90 % 0 lf 1019,8 hPa 0,0 l/m 0 min 0 min 27 W/m 14,6 km/h (3 Bft) 95,74 %
04.07.2017 06:58 15,0 C 15,6 C 14,4 C 90 % 0 lf 1019,8 hPa 0,0 l/m 0 min 0 min 28 W/m 14,6 km/h (3 Bft) 97,87 %
04.07.2017 07:00 15,1 C 15,6 C 14,4 C 90 % 0 lf 1019,8 hPa 0,0 l/m 0 min 0 min 28 W/m 14,6 km/h (3 Bft) 97,87 %
04.07.2017 07:02 15,1 C 15,6 C 14,4 C 90 % 0 lf 1019,8 hPa 0,0 l/m 0 min 0 min 27 W/m 12,6 km/h (3 Bft) 93,62 %
04.07.2017 07:04 15,1 C 15,6 C 14,4 C 90 % 0 lf 1019,9 hPa 0,0 l/m 0 min 0 min 26 W/m 12,6 km/h (3 Bft) 95,74 %
04.07.2017 07:06 15,1 C 15,6 C 14,4 C 90 % 0 lf 1019,9 hPa 0,0 l/m 0 min 0 min 26 W/m 12,6 km/h (3 Bft) 97,78 %
04.07.2017 07:08 15,1 C 15,6 C 14,4 C 90 % 0 lf 1019,8 hPa 0,0 l/m 0 min 0 min 31 W/m 8,4 km/h (2 Bft) 97,87 %
04.07.2017 07:10 15,1 C 15,6 C 15,0 C 90 % 0 lf 1019,8 hPa 0,0 l/m 0 min 0 min 47 W/m 14,6 km/h (3 Bft) 95,74 %
04.07.2017 07:12 15,1 C 15,6 C 15,0 C 90 % 0 lf 1019,8 hPa 0,0 l/m 0 min 0 min 57 W/m 12,6 km/h (3 Bft) 95,74 %
04.07.2017 07:14 15,2 C 15,6 C 15,0 C 90 % 0 lf 1019,8 hPa 0,0 l/m 0 min 0 min 68 W/m 12,6 km/h (3 Bft) 100,00 %
04.07.2017 07:16 15,2 C 16,1 C 15,0 C 91 % 0 lf 1019,8 hPa 0,0 l/m 0 min 0 min 77 W/m 10,5 km/h (2 Bft) 95,74 %
04.07.2017 07:18 15,2 C 16,1 C 15,0 C 91 % 0 lf 1019,8 hPa 0,0 l/m 0 min 0 min 76 W/m 14,6 km/h (3 Bft) 93,48 %
04.07.2017 07:20 15,2 C 16,1 C 15,0 C 91 % 0 lf 1019,8 hPa 0,0 l/m 0 min 0 min 74 W/m 10,5 km/h (2 Bft) 100,00 %
04.07.2017 07:22 15,2 C 16,1 C 15,6 C 91 % 0 lf 1019,9 hPa 0,0 l/m 0 min 0 min 64 W/m 16,7 km/h (3 Bft) 100,00 %
04.07.2017 07:24 15,3 C 16,1 C 15,6 C 90 % 0 lf 1019,9 hPa 0,0 l/m 0 min 0 min 65 W/m 16,7 km/h (3 Bft) 100,00 %
04.07.2017 07:26 15,3 C 16,1 C 15,6 C 90 % 0 lf 1019,9 hPa 0,0 l/m 0 min 0 min 67 W/m 16,7 km/h (3 Bft) 100,00 %
04.07.2017 07:28 15,3 C 16,1 C 15,6 C 90 % 0 lf 1020,0 hPa 0,0 l/m 0 min 0 min 73 W/m 10,5 km/h (2 Bft) 100,00 %
04.07.2017 07:30 15,4 C 16,1 C 15,6 C 90 % 0 lf 1019,9 hPa 0,0 l/m 0 min 0 min 83 W/m 12,6 km/h (3 Bft) 100,00 %
04.07.2017 07:32 15,4 C 16,1 C 15,6 C 90 % 0 lf 1020,0 hPa 0,0 l/m 0 min 0 min 83 W/m 14,6 km/h (3 Bft) 100,00 %
04.07.2017 07:34 15,4 C 16,1 C 15,6 C 90 % 0 lf 1020,0 hPa 0,0 l/m 0 min 0 min 74 W/m 12,6 km/h (3 Bft) 97,87 %
04.07.2017 07:36 15,5 C 16,1 C 15,6 C 91 % 0 lf 1020,0 hPa 0,0 l/m 0 min 0 min 69 W/m 10,5 km/h (2 Bft) 97,96 %
04.07.2017 07:38 15,5 C 16,1 C 15,6 C 91 % 0 lf 1020,0 hPa 0,0 l/m 0 min 0 min 76 W/m 12,6 km/h (3 Bft) 100,00 %
04.07.2017 07:40 15,6 C 16,1 C 16,1 C 91 % 0 lf 1019,9 hPa 0,0 l/m 0 min 0 min 93 W/m 12,6 km/h (3 Bft) 100,00 %
04.07.2017 07:42 15,6 C 16,7 C 16,1 C 91 % 0 lf 1019,9 hPa 0,0 l/m 0 min 0 min 105 W/m 12,6 km/h (3 Bft) 97,87 %
04.07.2017 07:44 15,6 C 16,7 C 16,1 C 91 % 0 lf 1019,9 hPa 0,0 l/m 0 min 0 min 116 W/m 12,6 km/h (3 Bft) 97,87 %
04.07.2017 07:46 15,7 C 16,7 C 16,7 C 91 % 0 lf 1019,9 hPa 0,0 l/m 0 min 0 min 130 W/m 10,5 km/h (2 Bft) 95,74 %
04.07.2017 07:48 15,7 C 17,2 C 16,7 C 91 % 0 lf 1020,0 hPa 0,0 l/m 2 min 0 min 158 W/m 14,6 km/h (3 Bft) 97,87 %
04.07.2017 07:50 15,8 C 17,2 C 16,7 C 91 % 0 lf 1020,0 hPa 0,0 l/m 0 min 0 min 137 W/m 16,7 km/h (3 Bft) 97,87 %
04.07.2017 07:52 15,8 C 17,2 C 16,7 C 90 % 0 lf 1020,0 hPa 0,0 l/m 0 min 0 min 96 W/m 14,6 km/h (3 Bft) 95,65 %
04.07.2017 07:54 15,9 C 16,7 C 16,7 C 90 % 0 lf 1020,0 hPa 0,0 l/m 0 min 0 min 84 W/m 16,7 km/h (3 Bft) 95,74 %
04.07.2017 07:56 15,9 C 16,7 C 16,1 C 90 % 0 lf 1020,0 hPa 0,0 l/m 0 min 0 min 85 W/m 14,6 km/h (3 Bft) 95,74 %
04.07.2017 07:58 15,9 C 16,7 C 16,1 C 90 % 0 lf 1020,1 hPa 0,0 l/m 0 min 0 min 91 W/m 14,6 km/h (3 Bft) 95,74 %
04.07.2017 08:00 15,9 C 16,7 C 16,1 C 90 % 0 lf 1020,0 hPa 0,0 l/m 0 min 0 min 104 W/m 14,6 km/h (3 Bft) 97,87 %
04.07.2017 08:02 15,9 C 16,7 C 16,1 C 90 % 0 lf 1020,1 hPa 0,0 l/m 0 min 0 min 106 W/m 14,6 km/h (3 Bft) 97,83 %
04.07.2017 08:04 15,9 C 16,7 C 16,7 C 90 % 0 lf 1020,0 hPa 0,0 l/m 0 min 0 min 111 W/m 14,6 km/h (3 Bft) 97,87 %
04.07.2017 08:06 16,0 C 16,7 C 16,7 C 90 % 0 lf 1020,1 hPa 0,0 l/m 0 min 0 min 114 W/m 14,6 km/h (3 Bft) 97,87 %
04.07.2017 08:08 16,0 C 17,2 C 16,7 C 90 % 0 lf 1020,1 hPa 0,0 l/m 0 min 0 min 119 W/m 12,6 km/h (3 Bft) 95,74 %
04.07.2017 08:10 16,1 C 17,2 C 16,7 C 89 % 0 lf 1020,1 hPa 0,0 l/m 0 min 0 min 129 W/m 12,6 km/h (3 Bft) 97,87 %
04.07.2017 08:12 16,1 C 17,8 C 16,7 C 89 % 0 lf 1020,1 hPa 0,0 l/m 0 min 0 min 143 W/m 6,3 km/h (2 Bft) 93,62 %
04.07.2017 08:14 16,1 C 17,8 C 17,2 C 89 % 0 lf 1020,1 hPa 0,0 l/m 0 min 0 min 153 W/m 14,6 km/h (3 Bft) 95,74 %
04.07.2017 08:16 16,2 C 17,8 C 17,2 C 90 % 0 lf 1020,2 hPa 0,0 l/m 0 min 0 min 162 W/m 14,6 km/h (3 Bft) 97,83 %
04.07.2017 08:18 16,2 C 17,8 C 17,2 C 89 % 0 lf 1020,2 hPa 0,0 l/m 0 min 0 min 172 W/m 16,7 km/h (3 Bft) 95,74 %
04.07.2017 08:20 16,2 C 17,8 C 17,2 C 89 % 0 lf 1020,2 hPa 0,0 l/m 0 min 0 min 155 W/m 12,6 km/h (3 Bft) 97,87 %
04.07.2017 08:22 16,3 C 17,8 C 17,2 C 89 % 0 lf 1020,2 hPa 0,0 l/m 0 min 0 min 147 W/m 10,5 km/h (2 Bft) 97,87 %
04.07.2017 08:24 16,3 C 18,3 C 17,2 C 89 % 0 lf 1020,2 hPa 0,0 l/m 0 min 0 min 156 W/m 10,5 km/h (2 Bft) 95,74 %
04.07.2017 08:26 16,4 C 18,3 C 17,8 C 89 % 0 lf 1020,1 hPa 0,0 l/m 0 min 0 min 170 W/m 16,7 km/h (3 Bft) 93,48 %
04.07.2017 08:28 16,4 C 18,3 C 17,8 C 89 % 0 lf 1020,1 hPa 0,0 l/m 0 min 0 min 170 W/m 16,7 km/h (3 Bft) 95,74 %
04.07.2017 08:30 16,4 C 18,3 C 17,8 C 89 % 0 lf 1020,1 hPa 0,0 l/m 0 min 0 min 154 W/m 14,6 km/h (3 Bft) 95,74 %
04.07.2017 08:32 16,5 C 18,3 C 17,8 C 89 % 0 lf 1020,1 hPa 0,0 l/m 0 min 0 min 143 W/m 14,6 km/h (3 Bft) 95,74 %
04.07.2017 08:34 16,5 C 18,3 C 17,2 C 89 % 0 lf 1020,1 hPa 0,0 l/m 0 min 0 min 166 W/m 18,8 km/h (3 Bft) 93,62 %
04.07.2017 08:36 16,6 C 18,9 C 17,8 C 89 % 0 lf 1020,2 hPa 0,0 l/m 0 min 0 min 193 W/m 16,7 km/h (3 Bft) 95,74 %
04.07.2017 08:38 16,6 C 18,3 C 17,8 C 89 % 0 lf 1020,2 hPa 0,0 l/m 0 min 0 min 191 W/m 16,7 km/h (3 Bft) 89,13 %
04.07.2017 08:40 16,6 C 18,3 C 17,8 C 88 % 0 lf 1020,3 hPa 0,0 l/m 0 min 0 min 172 W/m 16,7 km/h (3 Bft) 95,74 %
04.07.2017 08:42 16,7 C 17,8 C 17,8 C 88 % 0 lf 1020,3 hPa 0,0 l/m 0 min 0 min 162 W/m 16,7 km/h (3 Bft) 93,62 %
04.07.2017 08:44 16,7 C 17,8 C 17,2 C 88 % 0 lf 1020,3 hPa 0,0 l/m 0 min 0 min 151 W/m 12,6 km/h (3 Bft) 93,62 %
04.07.2017 08:46 16,7 C 17,8 C 17,2 C 88 % 0 lf 1020,3 hPa 0,0 l/m 0 min 0 min 157 W/m 16,7 km/h (3 Bft) 91,49 %
04.07.2017 08:48 16,7 C 18,3 C 17,2 C 88 % 0 lf 1020,2 hPa 0,0 l/m 0 min 0 min 208 W/m 16,7 km/h (3 Bft) 93,62 %
04.07.2017 08:50 16,8 C 18,9 C 17,8 C 88 % 0 lf 1020,2 hPa 0,0 l/m 2 min 0 min 296 W/m 14,6 km/h (3 Bft) 93,48 %
04.07.2017 08:52 16,8 C 18,9 C 18,3 C 88 % 0 lf 1020,2 hPa 0,0 l/m 2 min 0 min 263 W/m 14,6 km/h (3 Bft) 93,62 %
04.07.2017 08:54 16,8 C 19,4 C 18,9 C 88 % 0 lf 1020,2 hPa 0,0 l/m 2 min 0 min 263 W/m 14,6 km/h (3 Bft) 93,62 %
04.07.2017 08:56 16,9 C 18,9 C 18,9 C 88 % 0 lf 1020,2 hPa 0,0 l/m 2 min 0 min 299 W/m 14,6 km/h (3 Bft) 89,36 %
04.07.2017 08:58 16,9 C 19,4 C 18,9 C 88 % 0 lf 1020,3 hPa 0,0 l/m 2 min 0 min 301 W/m 10,5 km/h (2 Bft) 93,62 %
04.07.2017 09:00 17,0 C 20,0 C 19,4 C 88 % 0 lf 1020,3 hPa 0,0 l/m 2 min 0 min 277 W/m 14,6 km/h (3 Bft) 93,62 %
04.07.2017 09:02 17,1 C 19,4 C 18,9 C 88 % 0 lf 1020,4 hPa 0,0 l/m 2 min 0 min 267 W/m 16,7 km/h (3 Bft) 93,48 %
04.07.2017 09:04 17,1 C 19,4 C 18,9 C 87 % 0 lf 1020,4 hPa 0,0 l/m 2 min 0 min 254 W/m 14,6 km/h (3 Bft) 91,49 %
04.07.2017 09:06 17,2 C 19,4 C 18,9 C 87 % 0 lf 1020,4 hPa 0,0 l/m 2 min 0 min 252 W/m 16,7 km/h (3 Bft) 91,49 %
04.07.2017 09:08 17,2 C 19,4 C 19,4 C 87 % 0 lf 1020,5 hPa 0,0 l/m 2 min 0 min 285 W/m 14,6 km/h (3 Bft) 91,49 %
04.07.2017 09:10 17,3 C 20,0 C 19,4 C 87 % 0 lf 1020,4 hPa 0,0 l/m 2 min 0 min 279 W/m 10,5 km/h (2 Bft) 93,62 %
04.07.2017 09:12 17,3 C 20,0 C 20,0 C 87 % 0 lf 1020,4 hPa 0,0 l/m 2 min 0 min 304 W/m 10,5 km/h (2 Bft) 93,62 %
04.07.2017 09:14 17,4 C 21,1 C 20,0 C 87 % 0 lf 1020,4 hPa 0,0 l/m 2 min 0 min 354 W/m 14,6 km/h (3 Bft) 91,30 %
04.07.2017 09:16 17,4 C 20,6 C 20,0 C 87 % 0 lf 1020,5 hPa 0,0 l/m 2 min 0 min 310 W/m 14,6 km/h (3 Bft) 95,74 %
04.07.2017 09:18 17,6 C 21,1 C 20,0 C 87 % 0 lf 1020,4 hPa 0,0 l/m 2 min 0 min 336 W/m 18,8 km/h (3 Bft) 97,87 %
04.07.2017 09:20 17,7 C 21,1 C 20,0 C 87 % 0 lf 1020,4 hPa 0,0 l/m 2 min 0 min 377 W/m 14,6 km/h (3 Bft) 97,87 %
04.07.2017 09:22 17,7 C 22,2 C 20,0 C 87 % 0 lf 1020,5 hPa 0,0 l/m 2 min 0 min 397 W/m 14,6 km/h (3 Bft) 95,74 %
04.07.2017 09:24 17,8 C 23,3 C 20,6 C 86 % 0 lf 1020,5 hPa 0,0 l/m 2 min 0 min 434 W/m 10,5 km/h (2 Bft) 97,87 %
04.07.2017 09:26 17,9 C 24,4 C 20,6 C 87 % 0 lf 1020,5 hPa 0,0 l/m 2 min 0 min 519 W/m 16,7 km/h (3 Bft) 97,83 %
04.07.2017 09:28 18,1 C 25,6 C 20,6 C 87 % 0 lf 1020,5 hPa 0,0 l/m 2 min 0 min 554 W/m 20,9 km/h (4 Bft) 97,87 %
04.07.2017 09:30 18,2 C 25,0 C 20,6 C 86 % 0 lf 1020,6 hPa 0,0 l/m 2 min 0 min 559 W/m 18,8 km/h (3 Bft) 97,87 %
04.07.2017 09:32 18,2 C 25,0 C 21,1 C 85 % 0 lf 1020,6 hPa 0,0 l/m 2 min 0 min 609 W/m 20,9 km/h (4 Bft) 100,00 %
04.07.2017 09:34 18,3 C 24,4 C 21,1 C 85 % 0 lf 1020,6 hPa 0,0 l/m 2 min 0 min 628 W/m 20,9 km/h (4 Bft) 95,74 %
04.07.2017 09:36 18,4 C 23,3 C 21,1 C 85 % 0 lf 1020,6 hPa 0,0 l/m 2 min 0 min 429 W/m 16,7 km/h (3 Bft) 95,65 %
04.07.2017 09:38 18,4 C 22,8 C 21,1 C 84 % 0 lf 1020,6 hPa 0,0 l/m 2 min 0 min 299 W/m 8,4 km/h (2 Bft) 97,87 %
04.07.2017 09:40 18,5 C 22,2 C 20,6 C 84 % 0 lf 1020,6 hPa 0,0 l/m 0 min 0 min 227 W/m 12,6 km/h (3 Bft) 100,00 %
04.07.2017 09:42 18,6 C 21,1 C 20,6 C 84 % 0 lf 1020,7 hPa 0,0 l/m 0 min 0 min 211 W/m 14,6 km/h (3 Bft) 100,00 %
04.07.2017 09:44 18,6 C 20,6 C 20,6 C 84 % 0 lf 1020,7 hPa 0,0 l/m 0 min 0 min 211 W/m 10,5 km/h (2 Bft) 100,00 %
04.07.2017 09:46 18,6 C 20,0 C 20,0 C 83 % 0 lf 1020,8 hPa 0,0 l/m 0 min 0 min 219 W/m 20,9 km/h (4 Bft) 97,87 %
04.07.2017 09:48 18,6 C 19,4 C 19,4 C 83 % 0 lf 1020,7 hPa 0,0 l/m 0 min 0 min 230 W/m 18,8 km/h (3 Bft) 97,87 %
04.07.2017 09:50 18,5 C 19,4 C 19,4 C 83 % 0 lf 1020,8 hPa 0,0 l/m 0 min 0 min 230 W/m 16,7 km/h (3 Bft) 100,00 %
04.07.2017 09:52 18,5 C 20,0 C 19,4 C 83 % 0 lf 1020,8 hPa 0,0 l/m 0 min 0 min 240 W/m 20,9 km/h (4 Bft) 97,87 %
04.07.2017 09:54 18,4 C 20,0 C 20,0 C 83 % 0 lf 1020,7 hPa 0,0 l/m 0 min 0 min 252 W/m 10,5 km/h (2 Bft) 100,00 %
04.07.2017 09:56 18,4 C 20,0 C 20,0 C 83 % 0 lf 1020,8 hPa 0,0 l/m 0 min 0 min 256 W/m 16,7 km/h (3 Bft) 100,00 %
04.07.2017 09:58 18,4 C 20,0 C 20,0 C 84 % 0 lf 1020,8 hPa 0,0 l/m 0 min 0 min 268 W/m 16,7 km/h (3 Bft) 100,00 %
04.07.2017 10:00 18,4 C 20,0 C 20,0 C 84 % 0 lf 1020,8 hPa 0,0 l/m 0 min 0 min 278 W/m 12,6 km/h (3 Bft) 97,83 %
04.07.2017 10:05 18,3 C 20,6 C 20,6 C 84 % 0 lf 1020,8 hPa 0,0 l/m 0 min 0 min 294 W/m 18,8 km/h (3 Bft) 100,00 %
04.07.2017 10:08 18,3 C 21,1 C 20,6 C 84 % 0 lf 1020,8 hPa 0,0 l/m 3 min 0 min 367 W/m 16,7 km/h (3 Bft) 97,67 %
04.07.2017 10:10 18,3 C 21,1 C 20,6 C 84 % 0 lf 1020,8 hPa 0,0 l/m 2 min 0 min 353 W/m 18,8 km/h (3 Bft) 100,00 %
04.07.2017 10:12 18,3 C 21,1 C 20,6 C 84 % 0 lf 1020,8 hPa 0,0 l/m 2 min 0 min 339 W/m 14,6 km/h (3 Bft) 97,87 %
04.07.2017 10:14 18,4 C 21,1 C 21,1 C 84 % 0 lf 1020,8 hPa 0,0 l/m 2 min 0 min 344 W/m 16,7 km/h (3 Bft) 100,00 %
04.07.2017 10:16 18,4 C 21,1 C 21,1 C 84 % 0 lf 1020,8 hPa 0,0 l/m 2 min 0 min 359 W/m 18,8 km/h (3 Bft) 97,87 %
04.07.2017 10:18 18,4 C 21,1 C 20,6 C 84 % 0 lf 1020,8 hPa 0,0 l/m 2 min 0 min 350 W/m 20,9 km/h (4 Bft) 97,87 %
04.07.2017 10:20 18,3 C 20,6 C 20,6 C 83 % 0 lf 1020,8 hPa 0,0 l/m 2 min 0 min 360 W/m 18,8 km/h (3 Bft) 100,00 %
04.07.2017 10:22 18,4 C 21,1 C 20,6 C 84 % 0 lf 1020,8 hPa 0,0 l/m 2 min 0 min 364 W/m 23,0 km/h (4 Bft) 100,00 %
04.07.2017 10:24 18,4 C 21,7 C 21,1 C 84 % 0 lf 1020,7 hPa 0,0 l/m 2 min 0 min 389 W/m 14,6 km/h (3 Bft) 97,87 %
04.07.2017 10:26 18,4 C 22,2 C 21,1 C 84 % 0 lf 1020,8 hPa 0,0 l/m 2 min 0 min 391 W/m 23,0 km/h (4 Bft) 95,74 %
04.07.2017 10:28 18,4 C 21,7 C 21,7 C 84 % 0 lf 1020,8 hPa 0,0 l/m 2 min 0 min 372 W/m 12,6 km/h (3 Bft) 100,00 %
04.07.2017 10:30 18,5 C 22,2 C 21,7 C 84 % 0 lf 1020,8 hPa 0,0 l/m 2 min 0 min 370 W/m 16,7 km/h (3 Bft) 97,87 %
04.07.2017 10:32 18,5 C 22,8 C 21,7 C 84 % 0 lf 1020,8 hPa 0,0 l/m 2 min 0 min 392 W/m 14,6 km/h (3 Bft) 100,00 %
04.07.2017 10:34 18,6 C 22,2 C 21,7 C 84 % 0 lf 1020,8 hPa 0,0 l/m 2 min 0 min 404 W/m 16,7 km/h (3 Bft) 100,00 %
04.07.2017 10:36 18,6 C 23,3 C 21,7 C 83 % 0 lf 1020,8 hPa 0,0 l/m 2 min 0 min 418 W/m 16,7 km/h (3 Bft) 97,96 %
04.07.2017 10:38 18,6 C 23,9 C 22,2 C 83 % 0 lf 1020,7 hPa 0,0 l/m 2 min 0 min 479 W/m 16,7 km/h (3 Bft) 97,87 %
04.07.2017 10:40 18,7 C 24,4 C 22,2 C 84 % 0 lf 1020,7 hPa 0,0 l/m 2 min 0 min 434 W/m 20,9 km/h (4 Bft) 95,74 %
04.07.2017 10:42 18,7 C 24,4 C 22,2 C 83 % 0 lf 1020,7 hPa 0,0 l/m 2 min 0 min 511 W/m 18,8 km/h (3 Bft) 93,62 %
04.07.2017 10:44 18,8 C 26,1 C 23,3 C 83 % 0 lf 1020,6 hPa 0,0 l/m 2 min 0 min 628 W/m 12,6 km/h (3 Bft) 100,00 %
04.07.2017 10:46 18,9 C 26,1 C 23,9 C 83 % 0 lf 1020,6 hPa 0,0 l/m 2 min 0 min 745 W/m 14,6 km/h (3 Bft) 100,00 %
04.07.2017 10:48 19,0 C 26,1 C 23,3 C 83 % 0 lf 1020,7 hPa 0,0 l/m 2 min 0 min 492 W/m 20,9 km/h (4 Bft) 100,00 %
04.07.2017 10:50 19,1 C 26,7 C 24,4 C 82 % 0 lf 1020,7 hPa 0,0 l/m 2 min 0 min 573 W/m 16,7 km/h (3 Bft) 97,87 %
04.07.2017 10:52 19,2 C 27,2 C 25,0 C 82 % 0 lf 1020,6 hPa 0,0 l/m 2 min 0 min 748 W/m 18,8 km/h (3 Bft) 97,87 %
04.07.2017 10:54 19,3 C 27,8 C 25,6 C 82 % 0 lf 1020,7 hPa 0,0 l/m 2 min 0 min 739 W/m 16,7 km/h (3 Bft) 97,87 %
04.07.2017 10:56 19,4 C 27,2 C 26,1 C 82 % 0 lf 1020,8 hPa 0,0 l/m 2 min 0 min 754 W/m 20,9 km/h (4 Bft) 97,83 %
04.07.2017 10:58 19,6 C 27,8 C 26,1 C 82 % 0 lf 1020,7 hPa 0,0 l/m 2 min 0 min 792 W/m 14,6 km/h (3 Bft) 95,74 %
04.07.2017 11:00 19,7 C 28,3 C 26,7 C 81 % 0 lf 1020,7 hPa 0,0 l/m 2 min 0 min 894 W/m 14,6 km/h (3 Bft) 95,74 %
04.07.2017 11:02 19,8 C 28,9 C 26,7 C 81 % 0 lf 1020,6 hPa 0,0 l/m 2 min 0 min 918 W/m 18,8 km/h (3 Bft) 95,74 %
04.07.2017 11:04 20,0 C 27,8 C 26,1 C 80 % 0 lf 1020,7 hPa 0,0 l/m 2 min 0 min 918 W/m 23,0 km/h (4 Bft) 95,74 %
04.07.2017 11:06 20,1 C 27,8 C 26,1 C 79 % 0 lf 1020,7 hPa 0,0 l/m 2 min 0 min 918 W/m 20,9 km/h (4 Bft) 95,74 %
04.07.2017 11:08 20,1 C 26,7 C 25,6 C 78 % 0 lf 1020,7 hPa 0,0 l/m 2 min 0 min 780 W/m 20,9 km/h (4 Bft) 95,65 %
04.07.2017 11:10 20,2 C 28,3 C 26,1 C 78 % 0 lf 1020,7 hPa 0,0 l/m 2 min 0 min 784 W/m 16,7 km/h (3 Bft) 93,62 %
04.07.2017 11:12 20,3 C 30,6 C 27,2 C 79 % 0 lf 1020,6 hPa 0,0 l/m 2 min 0 min 787 W/m 10,5 km/h (2 Bft) 93,62 %
04.07.2017 11:14 20,5 C 29,4 C 27,8 C 79 % 0 lf 1020,7 hPa 0,0 l/m 2 min 0 min 790 W/m 16,7 km/h (3 Bft) 95,74 %
04.07.2017 11:16 20,6 C 27,8 C 27,2 C 78 % 0 lf 1020,6 hPa 0,0 l/m 2 min 0 min 959 W/m 14,6 km/h (3 Bft) 91,49 %
04.07.2017 11:18 20,7 C 28,3 C 27,2 C 77 % 0 lf 1020,7 hPa 0,0 l/m 2 min 0 min 830 W/m 18,8 km/h (3 Bft) 93,62 %
04.07.2017 11:20 20,8 C 28,9 C 27,8 C 77 % 0 lf 1020,6 hPa 0,0 l/m 2 min 0 min 799 W/m 14,6 km/h (3 Bft) 93,48 %
04.07.2017 11:22 20,9 C 30,0 C 27,8 C 76 % 0 lf 1020,5 hPa 0,0 l/m 2 min 0 min 802 W/m 10,5 km/h (2 Bft) 89,36 %
04.07.2017 11:24 21,0 C 30,6 C 27,8 C 76 % 0 lf 1020,5 hPa 0,0 l/m 2 min 0 min 804 W/m 10,5 km/h (2 Bft) 93,62 %
04.07.2017 11:26 21,2 C 32,2 C 28,3 C 77 % 0 lf 1020,5 hPa 0,0 l/m 2 min 0 min 807 W/m 10,5 km/h (2 Bft) 93,62 %
04.07.2017 11:28 21,3 C 30,0 C 27,8 C 77 % 0 lf 1020,4 hPa 0,0 l/m 2 min 0 min 810 W/m 16,7 km/h (3 Bft) 93,62 %
04.07.2017 11:30 21,4 C 30,6 C 27,2 C 75 % 0 lf 1020,6 hPa 0,0 l/m 2 min 0 min 813 W/m 18,8 km/h (3 Bft) 95,65 %
04.07.2017 11:32 21,5 C 31,7 C 26,7 C 75 % 0 lf 1020,5 hPa 0,0 l/m 2 min 0 min 747 W/m 16,7 km/h (3 Bft) 93,62 %
04.07.2017 11:34 21,6 C 32,2 C 26,1 C 74 % 0 lf 1020,5 hPa 0,0 l/m 2 min 0 min 849 W/m 10,5 km/h (2 Bft) 93,62 %
04.07.2017 11:36 21,7 C 31,1 C 25,0 C 74 % 0 lf 1020,5 hPa 0,0 l/m 2 min 0 min 858 W/m 10,5 km/h (2 Bft) 93,62 %
04.07.2017 11:38 21,7 C 28,3 C 24,4 C 73 % 0 lf 1020,6 hPa 0,0 l/m 2 min 0 min 858 W/m 14,6 km/h (3 Bft) 93,62 %
04.07.2017 11:40 21,7 C 26,1 C 23,9 C 73 % 0 lf 1020,5 hPa 0,0 l/m 2 min 0 min 843 W/m 12,6 km/h (3 Bft) 91,49 %
04.07.2017 11:42 21,6 C 27,2 C 25,6 C 73 % 0 lf 1020,5 hPa 0,0 l/m 2 min 0 min 837 W/m 10,5 km/h (2 Bft) 95,65 %
04.07.2017 11:44 21,6 C 27,2 C 27,2 C 73 % 0 lf 1020,5 hPa 0,0 l/m 2 min 0 min 831 W/m 8,4 km/h (2 Bft) 91,49 %
04.07.2017 11:46 21,6 C 27,8 C 28,3 C 74 % 0 lf 1020,5 hPa 0,0 l/m 2 min 0 min 834 W/m 6,3 km/h (2 Bft) 93,62 %
04.07.2017 11:48 21,7 C 29,4 C 29,4 C 74 % 0 lf 1020,5 hPa 0,0 l/m 2 min 0 min 836 W/m 12,6 km/h (3 Bft) 91,49 %
04.07.2017 11:50 21,8 C 28,9 C 27,8 C 74 % 0 lf 1020,5 hPa 0,0 l/m 2 min 0 min 838 W/m 12,6 km/h (3 Bft) 89,36 %
04.07.2017 11:52 21,8 C 27,8 C 27,8 C 74 % 0 lf 1020,4 hPa 0,0 l/m 2 min 0 min 997 W/m 10,5 km/h (2 Bft) 89,36 %
04.07.2017 11:54 21,9 C 28,9 C 28,3 C 74 % 0 lf 1020,4 hPa 0,0 l/m 2 min 0 min 895 W/m 12,6 km/h (3 Bft) 95,65 %
04.07.2017 11:56 21,9 C 30,6 C 28,9 C 73 % 0 lf 1020,3 hPa 0,0 l/m 2 min 0 min 962 W/m 8,4 km/h (2 Bft) 93,62 %
04.07.2017 11:58 22,1 C 31,7 C 30,6 C 73 % 0 lf 1020,4 hPa 0,0 l/m 2 min 0 min 985 W/m 8,4 km/h (2 Bft) 95,74 %
04.07.2017 12:00 22,2 C 30,6 C 30,0 C 72 % 0 lf 1020,4 hPa 0,0 l/m 2 min 0 min 918 W/m 16,7 km/h (3 Bft) 97,87 %
04.07.2017 12:02 22,3 C 28,9 C 28,3 C 74 % 0 lf 1020,4 hPa 0,0 l/m 2 min 0 min 889 W/m 10,5 km/h (2 Bft) 97,87 %
04.07.2017 12:04 22,3 C 27,8 C 26,7 C 72 % 0 lf 1020,4 hPa 0,0 l/m 2 min 0 min 467 W/m 10,5 km/h (2 Bft) 95,74 %
04.07.2017 12:06 22,3 C 26,7 C 25,6 C 71 % 0 lf 1020,4 hPa 0,0 l/m 0 min 0 min 305 W/m 12,6 km/h (3 Bft) 92,59 %
04.07.2017 12:08 22,3 C 25,0 C 24,4 C 71 % 0 lf 1020,5 hPa 0,0 l/m 0 min 0 min 335 W/m 12,6 km/h (3 Bft) 97,30 %
04.07.2017 12:10 22,3 C 26,7 C 26,1 C 71 % 0 lf 1020,4 hPa 0,0 l/m 0 min 0 min 371 W/m 8,4 km/h (2 Bft) 97,83 %
04.07.2017 12:12 22,3 C 26,1 C 26,1 C 71 % 0 lf 1020,4 hPa 0,0 l/m 2 min 0 min 464 W/m 6,3 km/h (2 Bft) 97,87 %
04.07.2017 12:14 22,3 C 26,7 C 26,7 C 72 % 0 lf 1020,4 hPa 0,0 l/m 2 min 0 min 498 W/m 12,6 km/h (3 Bft) 95,74 %
04.07.2017 12:16 22,3 C 26,1 C 26,1 C 71 % 0 lf 1020,3 hPa 0,0 l/m 2 min 0 min 420 W/m 8,4 km/h (2 Bft) 97,87 %
04.07.2017 12:18 22,3 C 26,1 C 26,1 C 72 % 0 lf 1020,3 hPa 0,0 l/m 0 min 0 min 368 W/m 10,5 km/h (2 Bft) 97,87 %
04.07.2017 12:20 22,3 C 25,0 C 25,0 C 71 % 0 lf 1020,4 hPa 0,0 l/m 0 min 0 min 343 W/m 16,7 km/h (3 Bft) 96,55 %
04.07.2017 12:22 22,2 C 24,4 C 24,4 C 71 % 0 lf 1020,4 hPa 0,0 l/m 0 min 0 min 362 W/m 18,8 km/h (3 Bft) 97,14 %
04.07.2017 12:24 22,1 C 25,0 C 24,4 C 72 % 0 lf 1020,4 hPa 0,0 l/m 0 min 0 min 370 W/m 8,4 km/h (2 Bft) 97,87 %
04.07.2017 12:26 22,1 C 25,6 C 24,4 C 71 % 0 lf 1020,3 hPa 0,0 l/m 2 min 0 min 415 W/m 4,2 km/h (1 Bft) 97,87 %
04.07.2017 12:28 22,1 C 26,7 C 25,0 C 72 % 0 lf 1020,4 hPa 0,0 l/m 2 min 0 min 427 W/m 12,6 km/h (3 Bft) 97,87 %
04.07.2017 12:30 22,1 C 25,6 C 25,6 C 71 % 0 lf 1020,3 hPa 0,0 l/m 2 min 0 min 430 W/m 10,5 km/h (2 Bft) 95,74 %
04.07.2017 12:32 22,1 C 28,3 C 26,7 C 72 % 0 lf 1020,3 hPa 0,0 l/m 2 min 0 min 616 W/m 6,3 km/h (2 Bft) 93,48 %
04.07.2017 12:34 22,2 C 28,3 C 26,7 C 72 % 0 lf 1020,3 hPa 0,0 l/m 2 min 0 min 799 W/m 14,6 km/h (3 Bft) 97,87 %
04.07.2017 12:36 22,2 C 27,2 C 26,1 C 71 % 0 lf 1020,3 hPa 0,0 l/m 0 min 0 min 365 W/m 10,5 km/h (2 Bft) 98,00 %
04.07.2017 12:38 22,2 C 27,8 C 26,1 C 71 % 0 lf 1020,3 hPa 0,0 l/m 0 min 0 min 387 W/m 12,6 km/h (3 Bft) 97,87 %
04.07.2017 12:40 22,2 C 27,8 C 25,0 C 70 % 0 lf 1020,3 hPa 0,0 l/m 0 min 0 min 368 W/m 10,5 km/h (2 Bft) 100,00 %
04.07.2017 12:42 22,2 C 27,2 C 24,4 C 70 % 0 lf 1020,3 hPa 0,0 l/m 0 min 0 min 354 W/m 10,5 km/h (2 Bft) 95,65 %
04.07.2017 12:44 22,2 C 26,7 C 24,4 C 70 % 0 lf 1020,3 hPa 0,0 l/m 0 min 0 min 381 W/m 8,4 km/h (2 Bft) 97,87 %
04.07.2017 12:46 22,2 C 27,2 C 24,4 C 71 % 0 lf 1020,3 hPa 0,0 l/m 2 min 0 min 437 W/m 10,5 km/h (2 Bft) 100,00 %
04.07.2017 12:48 22,2 C 27,8 C 25,0 C 71 % 0 lf 1020,3 hPa 0,0 l/m 2 min 0 min 431 W/m 8,4 km/h (2 Bft) 100,00 %
04.07.2017 12:50 22,2 C 26,7 C 25,0 C 70 % 0 lf 1020,3 hPa 0,0 l/m 0 min 0 min 414 W/m 10,5 km/h (2 Bft) 100,00 %
04.07.2017 12:52 22,2 C 25,6 C 24,4 C 70 % 0 lf 1020,3 hPa 0,0 l/m 0 min 0 min 320 W/m 10,5 km/h (2 Bft) 95,74 %
04.07.2017 12:54 22,1 C 25,6 C 24,4 C 71 % 0 lf 1020,2 hPa 0,0 l/m 0 min 0 min 284 W/m 10,5 km/h (2 Bft) 100,00 %
04.07.2017 12:56 22,1 C 25,0 C 23,9 C 71 % 0 lf 1020,3 hPa 0,0 l/m 0 min 0 min 285 W/m 12,6 km/h (3 Bft) 97,87 %
04.07.2017 12:58 22,1 C 25,0 C 23,3 C 71 % 0 lf 1020,2 hPa 0,0 l/m 0 min 0 min 281 W/m 8,4 km/h (2 Bft) 97,87 %
04.07.2017 13:00 22,1 C 25,0 C 23,3 C 71 % 0 lf 1020,2 hPa 0,0 l/m 0 min 0 min 322 W/m 14,6 km/h (3 Bft) 97,87 %
04.07.2017 13:02 22,1 C 28,3 C 25,0 C 72 % 0 lf 1020,2 hPa 0,0 l/m 2 min 0 min 806 W/m 14,6 km/h (3 Bft) 97,87 %
04.07.2017 13:04 22,2 C 28,3 C 25,0 C 71 % 0 lf 1020,1 hPa 0,0 l/m 2 min 0 min 1000 W/m 10,5 km/h (2 Bft) 97,87 %
04.07.2017 13:06 22,2 C 27,2 C 25,6 C 70 % 0 lf 1020,1 hPa 0,0 l/m 0 min 0 min 341 W/m 16,7 km/h (3 Bft) 98,08 %
04.07.2017 13:08 22,3 C 28,9 C 27,8 C 72 % 0 lf 1020,0 hPa 0,0 l/m 2 min 0 min 847 W/m 10,5 km/h (2 Bft) 97,87 %
04.07.2017 13:10 22,3 C 28,3 C 29,4 C 70 % 0 lf 1020,0 hPa 0,0 l/m 2 min 0 min 964 W/m 10,5 km/h (2 Bft) 97,87 %
04.07.2017 13:12 22,5 C 30,6 C 30,0 C 72 % 0 lf 1020,0 hPa 0,0 l/m 2 min 0 min 1052 W/m 8,4 km/h (2 Bft) 97,87 %
04.07.2017 13:14 22,7 C 32,2 C 31,1 C 73 % 0 lf 1019,9 hPa 0,0 l/m 2 min 0 min 900 W/m 14,6 km/h (3 Bft) 95,74 %
04.07.2017 13:16 22,9 C 31,7 C 31,1 C 71 % 0 lf 1019,9 hPa 0,0 l/m 2 min 0 min 1006 W/m 25,1 km/h (4 Bft) 97,83 %
04.07.2017 13:18 23,1 C 30,6 C 30,0 C 70 % 0 lf 1019,9 hPa 0,0 l/m 2 min 0 min 901 W/m 16,7 km/h (3 Bft) 97,87 %
04.07.2017 13:20 23,3 C 30,6 C 28,9 C 69 % 0 lf 1020,0 hPa 0,0 l/m 2 min 0 min 598 W/m 16,7 km/h (3 Bft) 97,87 %
04.07.2017 13:22 23,4 C 31,7 C 28,9 C 69 % 0 lf 1020,0 hPa 0,0 l/m 2 min 0 min 702 W/m 18,8 km/h (3 Bft) 95,74 %
04.07.2017 13:24 23,6 C 30,6 C 28,3 C 67 % 0 lf 1020,0 hPa 0,0 l/m 2 min 0 min 866 W/m 10,5 km/h (2 Bft) 95,74 %
04.07.2017 13:26 23,7 C 31,1 C 27,8 C 66 % 0 lf 1019,9 hPa 0,0 l/m 2 min 0 min 1092 W/m 6,3 km/h (2 Bft) 97,87 %
04.07.2017 13:28 23,7 C 31,7 C 27,8 C 67 % 0 lf 1020,0 hPa 0,0 l/m 2 min 0 min 1099 W/m 14,6 km/h (3 Bft) 97,83 %
04.07.2017 13:30 23,9 C 29,4 C 27,2 C 67 % 0 lf 1019,9 hPa 0,0 l/m 2 min 0 min 614 W/m 14,6 km/h (3 Bft) 97,87 %
04.07.2017 13:32 23,8 C 27,8 C 26,1 C 66 % 0 lf 1019,9 hPa 0,0 l/m 0 min 0 min 290 W/m 8,4 km/h (2 Bft) 95,74 %
04.07.2017 13:34 23,8 C 26,7 C 25,6 C 67 % 0 lf 1019,9 hPa 0,0 l/m 0 min 0 min 296 W/m 10,5 km/h (2 Bft) 97,87 %
04.07.2017 13:36 23,8 C 26,7 C 25,6 C 68 % 0 lf 1020,0 hPa 0,0 l/m 0 min 0 min 343 W/m 14,6 km/h (3 Bft) 97,37 %
04.07.2017 13:38 23,7 C 27,2 C 25,6 C 66 % 0 lf 1020,0 hPa 0,0 l/m 0 min 0 min 407 W/m 14,6 km/h (3 Bft) 97,87 %
04.07.2017 13:40 23,7 C 27,2 C 25,6 C 67 % 0 lf 1020,0 hPa 0,0 l/m 2 min 0 min 978 W/m 12,6 km/h (3 Bft) 100,00 %
04.07.2017 13:42 23,7 C 26,7 C 25,0 C 67 % 0 lf 1020,0 hPa 0,0 l/m 2 min 0 min 665 W/m 8,4 km/h (2 Bft) 97,83 %
04.07.2017 13:44 23,7 C 27,8 C 25,6 C 69 % 0 lf 1020,0 hPa 0,0 l/m 2 min 0 min 466 W/m 8,4 km/h (2 Bft) 100,00 %
04.07.2017 13:46 23,8 C 30,0 C 26,1 C 68 % 0 lf 1020,0 hPa 0,0 l/m 2 min 0 min 724 W/m 6,3 km/h (2 Bft) 100,00 %
04.07.2017 13:48 23,8 C 32,2 C 26,7 C 69 % 0 lf 1020,0 hPa 0,0 l/m 2 min 0 min 1057 W/m 4,2 km/h (1 Bft) 100,00 %
04.07.2017 13:50 24,0 C 32,8 C 27,8 C 69 % 0 lf 1020,1 hPa 0,0 l/m 2 min 0 min 1035 W/m 12,6 km/h (3 Bft) 97,87 %
04.07.2017 13:52 24,1 C 31,1 C 27,8 C 67 % 0 lf 1020,0 hPa 0,0 l/m 2 min 0 min 991 W/m 12,6 km/h (3 Bft) 93,48 %
04.07.2017 13:54 24,2 C 30,6 C 27,2 C 67 % 0 lf 1020,0 hPa 0,0 l/m 2 min 0 min 991 W/m 12,6 km/h (3 Bft) 97,87 %
04.07.2017 13:56 24,2 C 30,0 C 26,1 C 65 % 0 lf 1020,0 hPa 0,0 l/m 2 min 0 min 446 W/m 12,6 km/h (3 Bft) 97,87 %
04.07.2017 13:58 24,2 C 30,6 C 26,1 C 65 % 0 lf 1020,0 hPa 0,0 l/m 2 min 0 min 694 W/m 14,6 km/h (3 Bft) 95,74 %
04.07.2017 14:00 24,2 C 29,4 C 26,1 C 65 % 0 lf 1020,0 hPa 0,0 l/m 2 min 0 min 883 W/m 14,6 km/h (3 Bft) 100,00 %
04.07.2017 14:02 24,2 C 30,6 C 26,1 C 64 % 0 lf 1020,0 hPa 0,0 l/m 2 min 0 min 590 W/m 16,7 km/h (3 Bft) 97,87 %
04.07.2017 14:04 24,2 C 31,1 C 26,1 C 65 % 0 lf 1019,9 hPa 0,0 l/m 2 min 0 min 959 W/m 12,6 km/h (3 Bft) 97,83 %
04.07.2017 14:06 24,1 C 29,4 C 25,6 C 64 % 0 lf 1019,9 hPa 0,0 l/m 2 min 0 min 946 W/m 12,6 km/h (3 Bft) 97,87 %
04.07.2017 14:08 24,1 C 28,9 C 25,6 C 65 % 0 lf 1019,9 hPa 0,0 l/m 2 min 0 min 696 W/m 18,8 km/h (3 Bft) 95,74 %
04.07.2017 14:10 24,1 C 30,0 C 27,8 C 66 % 0 lf 1019,9 hPa 0,0 l/m 2 min 0 min 670 W/m 18,8 km/h (3 Bft) 93,62 %
04.07.2017 14:12 24,1 C 31,7 C 29,4 C 67 % 0 lf 1019,9 hPa 0,0 l/m 2 min 0 min 975 W/m 16,7 km/h (3 Bft) 95,74 %
04.07.2017 14:14 24,1 C 31,1 C 30,6 C 64 % 0 lf 1019,9 hPa 0,0 l/m 2 min 0 min 936 W/m 12,6 km/h (3 Bft) 93,62 %
04.07.2017 14:16 24,2 C 32,2 C 31,1 C 67 % 0 lf 1019,8 hPa 0,0 l/m 2 min 0 min 973 W/m 10,5 km/h (2 Bft) 95,65 %
04.07.2017 14:18 24,2 C 32,2 C 31,7 C 67 % 0 lf 1019,8 hPa 0,0 l/m 2 min 0 min 895 W/m 18,8 km/h (3 Bft) 95,74 %
04.07.2017 14:20 24,3 C 31,1 C 32,2 C 66 % 0 lf 1019,8 hPa 0,0 l/m 2 min 0 min 894 W/m 20,9 km/h (4 Bft) 95,74 %
04.07.2017 14:22 24,4 C 31,1 C 32,8 C 65 % 0 lf 1019,8 hPa 0,0 l/m 2 min 0 min 893 W/m 16,7 km/h (3 Bft) 89,36 %
04.07.2017 14:24 24,5 C 32,2 C 33,3 C 64 % 0 lf 1019,8 hPa 0,0 l/m 2 min 0 min 892 W/m 12,6 km/h (3 Bft) 95,74 %
04.07.2017 14:26 24,6 C 31,7 C 33,3 C 64 % 0 lf 1019,8 hPa 0,0 l/m 2 min 0 min 891 W/m 14,6 km/h (3 Bft) 95,65 %
04.07.2017 14:28 24,7 C 30,6 C 33,3 C 63 % 0 lf 1019,8 hPa 0,0 l/m 2 min 0 min 890 W/m 14,6 km/h (3 Bft) 97,87 %
04.07.2017 14:30 24,8 C 31,1 C 33,9 C 64 % 0 lf 1019,8 hPa 0,0 l/m 2 min 0 min 1075 W/m 18,8 km/h (3 Bft) 95,74 %
04.07.2017 14:32 24,8 C 31,7 C 33,9 C 64 % 0 lf 1019,8 hPa 0,0 l/m 2 min 0 min 907 W/m 16,7 km/h (3 Bft) 93,62 %
04.07.2017 14:34 24,9 C 32,2 C 33,3 C 63 % 0 lf 1019,8 hPa 0,0 l/m 2 min 0 min 1027 W/m 12,6 km/h (3 Bft) 95,74 %
04.07.2017 14:36 25,0 C 32,8 C 33,9 C 62 % 0 lf 1019,8 hPa 0,0 l/m 2 min 0 min 885 W/m 16,7 km/h (3 Bft) 95,74 %
04.07.2017 14:38 25,1 C 31,7 C 33,3 C 62 % 0 lf 1019,8 hPa 0,0 l/m 2 min 0 min 1149 W/m 16,7 km/h (3 Bft) 95,65 %
04.07.2017 14:40 25,1 C 31,7 C 33,9 C 62 % 0 lf 1019,8 hPa 0,0 l/m 2 min 0 min 924 W/m 14,6 km/h (3 Bft) 91,49 %
04.07.2017 14:42 25,1 C 30,6 C 33,3 C 60 % 0 lf 1019,7 hPa 0,0 l/m 2 min 0 min 914 W/m 18,8 km/h (3 Bft) 95,74 %
04.07.2017 14:44 25,1 C 30,6 C 33,9 C 61 % 0 lf 1019,7 hPa 0,0 l/m 2 min 0 min 905 W/m 18,8 km/h (3 Bft) 95,74 %
04.07.2017 14:46 25,1 C 30,0 C 34,4 C 61 % 0 lf 1019,6 hPa 0,0 l/m 2 min 0 min 892 W/m 14,6 km/h (3 Bft) 97,87 %
04.07.2017 14:48 25,2 C 31,1 C 35,0 C 61 % 0 lf 1019,7 hPa 0,0 l/m 2 min 0 min 890 W/m 8,4 km/h (2 Bft) 97,87 %
04.07.2017 14:50 25,3 C 31,1 C 35,6 C 62 % 0 lf 1019,7 hPa 0,0 l/m 2 min 0 min 880 W/m 14,6 km/h (3 Bft) 95,65 %
04.07.2017 14:52 25,4 C 32,2 C 34,4 C 60 % 0 lf 1019,6 hPa 0,0 l/m 2 min 0 min 889 W/m 12,6 km/h (3 Bft) 95,74 %
04.07.2017 14:54 25,4 C 31,1 C 33,3 C 61 % 0 lf 1019,7 hPa 0,0 l/m 2 min 0 min 889 W/m 16,7 km/h (3 Bft) 95,74 %
04.07.2017 14:56 25,3 C 28,3 C 30,6 C 61 % 0 lf 1019,6 hPa 0,0 l/m 2 min 0 min 574 W/m 20,9 km/h (4 Bft) 95,74 %
04.07.2017 14:58 25,2 C 27,8 C 30,0 C 62 % 0 lf 1019,6 hPa 0,0 l/m 0 min 0 min 283 W/m 10,5 km/h (2 Bft) 95,74 %
04.07.2017 15:00 25,1 C 27,2 C 29,4 C 61 % 0 lf 1019,6 hPa 0,0 l/m 0 min 0 min 283 W/m 16,7 km/h (3 Bft) 95,74 %
04.07.2017 15:03 24,9 C 26,7 C 28,3 C 61 % 0 lf 1019,5 hPa 0,0 l/m 0 min 0 min 262 W/m 12,6 km/h (3 Bft) 94,29 %
04.07.2017 15:04 24,9 C 27,2 C 28,9 C 61 % 0 lf 1019,5 hPa 0,0 l/m 0 min 0 min 302 W/m 16,7 km/h (3 Bft) 86,96 %
04.07.2017 15:06 24,8 C 28,3 C 31,1 C 63 % 0 lf 1019,5 hPa 0,0 l/m 2 min 0 min 753 W/m 14,6 km/h (3 Bft) 97,87 %
04.07.2017 15:08 24,8 C 29,4 C 32,8 C 63 % 0 lf 1019,5 hPa 0,0 l/m 2 min 0 min 873 W/m 16,7 km/h (3 Bft) 97,87 %
04.07.2017 15:10 24,8 C 30,0 C 33,9 C 63 % 0 lf 1019,5 hPa 0,0 l/m 2 min 0 min 848 W/m 12,6 km/h (3 Bft) 95,74 %
04.07.2017 15:12 24,8 C 30,0 C 33,9 C 62 % 0 lf 1019,5 hPa 0,0 l/m 2 min 0 min 856 W/m 8,4 km/h (2 Bft) 95,74 %
04.07.2017 15:14 24,8 C 28,9 C 33,9 C 62 % 0 lf 1019,4 hPa 0,0 l/m 2 min 0 min 858 W/m 12,6 km/h (3 Bft) 95,65 %
04.07.2017 15:16 24,8 C 30,6 C 34,4 C 64 % 0 lf 1019,4 hPa 0,0 l/m 2 min 0 min 877 W/m 10,5 km/h (2 Bft) 95,74 %
04.07.2017 15:18 24,9 C 30,6 C 35,0 C 64 % 0 lf 1019,4 hPa 0,0 l/m 2 min 0 min 888 W/m 16,7 km/h (3 Bft) 95,74 %
04.07.2017 15:20 25,0 C 31,1 C 35,6 C 62 % 0 lf 1019,4 hPa 0,0 l/m 2 min 0 min 865 W/m 14,6 km/h (3 Bft) 95,74 %
04.07.2017 15:22 25,1 C 31,1 C 36,1 C 62 % 0 lf 1019,4 hPa 0,0 l/m 2 min 0 min 859 W/m 14,6 km/h (3 Bft) 93,62 %
04.07.2017 15:24 25,2 C 31,7 C 36,1 C 61 % 0 lf 1019,4 hPa 0,0 l/m 2 min 0 min 858 W/m 14,6 km/h (3 Bft) 93,62 %
04.07.2017 15:26 25,3 C 32,2 C 36,7 C 61 % 0 lf 1019,3 hPa 0,0 l/m 2 min 0 min 850 W/m 10,5 km/h (2 Bft) 95,65 %
04.07.2017 15:28 25,5 C 31,7 C 36,7 C 60 % 0 lf 1019,3 hPa 0,0 l/m 2 min 0 min 846 W/m 18,8 km/h (3 Bft) 93,62 %
04.07.2017 15:30 25,6 C 30,6 C 36,1 C 60 % 0 lf 1019,3 hPa 0,0 l/m 2 min 0 min 848 W/m 14,6 km/h (3 Bft) 91,49 %
04.07.2017 15:32 25,6 C 29,4 C 34,4 C 59 % 0 lf 1019,4 hPa 0,0 l/m 2 min 0 min 837 W/m 10,5 km/h (2 Bft) 95,74 %
04.07.2017 15:34 25,6 C 30,0 C 34,4 C 59 % 0 lf 1019,4 hPa 0,0 l/m 2 min 0 min 831 W/m 16,7 km/h (3 Bft) 95,74 %
04.07.2017 15:36 25,6 C 30,6 C 35,0 C 61 % 0 lf 1019,3 hPa 0,0 l/m 2 min 0 min 829 W/m 14,6 km/h (3 Bft) 96,23 %
04.07.2017 15:38 25,6 C 30,0 C 34,4 C 59 % 0 lf 1019,3 hPa 0,0 l/m 2 min 0 min 831 W/m 16,7 km/h (3 Bft) 95,74 %
04.07.2017 15:40 25,6 C 30,6 C 35,0 C 58 % 0 lf 1019,3 hPa 0,0 l/m 2 min 0 min 807 W/m 14,6 km/h (3 Bft) 95,74 %
04.07.2017 15:42 25,6 C 30,6 C 34,4 C 59 % 0 lf 1019,3 hPa 0,0 l/m 2 min 0 min 835 W/m 12,6 km/h (3 Bft) 95,83 %
04.07.2017 15:44 25,6 C 30,0 C 35,0 C 58 % 0 lf 1019,3 hPa 0,0 l/m 2 min 0 min 845 W/m 8,4 km/h (2 Bft) 97,14 %
04.07.2017 15:46 25,6 C 30,0 C 35,0 C 59 % 0 lf 1019,3 hPa 0,0 l/m 2 min 0 min 833 W/m 8,4 km/h (2 Bft) 97,87 %
04.07.2017 15:48 25,6 C 30,6 C 35,0 C 59 % 0 lf 1019,2 hPa 0,0 l/m 2 min 0 min 832 W/m 10,5 km/h (2 Bft) 95,74 %
04.07.2017 15:50 25,6 C 30,6 C 35,6 C 59 % 0 lf 1019,2 hPa 0,0 l/m 2 min 0 min 830 W/m 10,5 km/h (2 Bft) 98,28 %
04.07.2017 15:52 25,6 C 30,6 C 34,4 C 58 % 0 lf 1019,2 hPa 0,0 l/m 2 min 0 min 804 W/m 12,6 km/h (3 Bft) 100,00 %
04.07.2017 15:54 25,6 C 30,6 C 35,6 C 59 % 0 lf 1019,2 hPa 0,0 l/m 2 min 0 min 805 W/m 10,5 km/h (2 Bft) 100,00 %
04.07.2017 15:56 25,7 C 30,6 C 36,7 C 60 % 0 lf 1019,2 hPa 0,0 l/m 2 min 0 min 815 W/m 16,7 km/h (3 Bft) 100,00 %
04.07.2017 15:58 25,7 C 28,3 C 35,0 C 59 % 0 lf 1019,2 hPa 0,0 l/m 2 min 0 min 801 W/m 14,6 km/h (3 Bft) 100,00 %
04.07.2017 16:00 25,7 C 28,9 C 35,6 C 59 % 0 lf 1019,2 hPa 0,0 l/m 2 min 0 min 798 W/m 14,6 km/h (3 Bft) 97,87 %
04.07.2017 16:02 25,7 C 29,4 C 35,6 C 59 % 0 lf 1019,2 hPa 0,0 l/m 2 min 0 min 797 W/m 16,7 km/h (3 Bft) 98,00 %
04.07.2017 16:04 25,7 C 29,4 C 35,6 C 57 % 0 lf 1019,2 hPa 0,0 l/m 2 min 0 min 801 W/m 14,6 km/h (3 Bft) 97,87 %
04.07.2017 16:06 25,7 C 28,9 C 36,1 C 57 % 0 lf 1019,2 hPa 0,0 l/m 2 min 0 min 806 W/m 12,6 km/h (3 Bft) 95,74 %
04.07.2017 16:08 25,7 C 28,9 C 36,1 C 59 % 0 lf 1019,2 hPa 0,0 l/m 2 min 0 min 802 W/m 20,9 km/h (4 Bft) 97,87 %
04.07.2017 16:10 25,7 C 27,8 C 36,1 C 58 % 0 lf 1019,2 hPa 0,0 l/m 2 min 0 min 803 W/m 10,5 km/h (2 Bft) 100,00 %
04.07.2017 16:12 25,7 C 27,2 C 35,6 C 58 % 0 lf 1019,2 hPa 0,0 l/m 2 min 0 min 795 W/m 10,5 km/h (2 Bft) 100,00 %
04.07.2017 16:14 25,7 C 28,3 C 36,1 C 58 % 0 lf 1019,2 hPa 0,0 l/m 2 min 0 min 788 W/m 18,8 km/h (3 Bft) 100,00 %
04.07.2017 16:16 25,8 C 28,3 C 36,7 C 58 % 0 lf 1019,1 hPa 0,0 l/m 2 min 0 min 789 W/m 12,6 km/h (3 Bft) 96,88 %
04.07.2017 16:18 25,8 C 28,3 C 36,7 C 58 % 0 lf 1019,1 hPa 0,0 l/m 2 min 0 min 786 W/m 12,6 km/h (3 Bft) 100,00 %
04.07.2017 16:20 25,9 C 27,8 C 37,2 C 58 % 0 lf 1019,2 hPa 0,0 l/m 2 min 0 min 782 W/m 12,6 km/h (3 Bft) 97,87 %
04.07.2017 16:22 25,9 C 27,8 C 37,2 C 59 % 0 lf 1019,2 hPa 0,0 l/m 2 min 0 min 778 W/m 10,5 km/h (2 Bft) 97,87 %
04.07.2017 16:24 26,0 C 28,3 C 37,2 C 59 % 0 lf 1019,2 hPa 0,0 l/m 2 min 0 min 771 W/m 10,5 km/h (2 Bft) 97,83 %
04.07.2017 16:26 26,1 C 27,8 C 37,8 C 58 % 0 lf 1019,1 hPa 0,0 l/m 2 min 0 min 763 W/m 12,6 km/h (3 Bft) 100,00 %
04.07.2017 16:28 26,2 C 27,2 C 37,8 C 58 % 0 lf 1019,1 hPa 0,0 l/m 2 min 0 min 782 W/m 8,4 km/h (2 Bft) 95,74 %
04.07.2017 16:30 26,2 C 27,2 C 37,2 C 57 % 0 lf 1019,1 hPa 0,0 l/m 2 min 0 min 774 W/m 8,4 km/h (2 Bft) 97,87 %
04.07.2017 16:32 26,2 C 26,7 C 34,4 C 57 % 0 lf 1019,0 hPa 0,0 l/m 2 min 0 min 697 W/m 8,4 km/h (2 Bft) 97,87 %
04.07.2017 16:34 26,2 C 26,7 C 34,4 C 56 % 0 lf 1019,0 hPa 0,0 l/m 2 min 0 min 404 W/m 14,6 km/h (3 Bft) 95,74 %
04.07.2017 16:36 26,2 C 26,7 C 36,1 C 57 % 0 lf 1019,0 hPa 0,0 l/m 2 min 0 min 710 W/m 10,5 km/h (2 Bft) 97,83 %
04.07.2017 16:38 26,2 C 27,2 C 35,6 C 56 % 0 lf 1019,1 hPa 0,0 l/m 2 min 0 min 750 W/m 14,6 km/h (3 Bft) 93,62 %
04.07.2017 16:40 26,2 C 27,2 C 36,1 C 57 % 0 lf 1019,0 hPa 0,0 l/m 2 min 0 min 752 W/m 14,6 km/h (3 Bft) 95,74 %
04.07.2017 16:42 26,3 C 27,8 C 37,2 C 55 % 0 lf 1019,0 hPa 0,0 l/m 2 min 0 min 752 W/m 12,6 km/h (3 Bft) 95,74 %
04.07.2017 16:44 26,3 C 27,8 C 36,7 C 54 % 0 lf 1018,9 hPa 0,0 l/m 2 min 0 min 736 W/m 12,6 km/h (3 Bft) 95,74 %
04.07.2017 16:46 26,3 C 27,2 C 33,9 C 53 % 0 lf 1018,9 hPa 0,0 l/m 2 min 0 min 499 W/m 12,6 km/h (3 Bft) 97,87 %
04.07.2017 16:48 26,2 C 26,7 C 31,1 C 54 % 0 lf 1018,9 hPa 0,0 l/m 0 min 0 min 157 W/m 10,5 km/h (2 Bft) 95,65 %
04.07.2017 16:50 26,1 C 26,1 C 29,4 C 54 % 0 lf 1019,0 hPa 0,0 l/m 0 min 0 min 158 W/m 10,5 km/h (2 Bft) 95,74 %
04.07.2017 16:52 26,0 C 25,6 C 27,8 C 54 % 0 lf 1018,9 hPa 0,0 l/m 0 min 0 min 158 W/m 14,6 km/h (3 Bft) 97,87 %
04.07.2017 16:54 25,9 C 25,6 C 28,3 C 53 % 0 lf 1018,9 hPa 0,0 l/m 0 min 0 min 172 W/m 12,6 km/h (3 Bft) 97,87 %
04.07.2017 16:56 25,8 C 26,1 C 30,6 C 54 % 0 lf 1019,0 hPa 0,0 l/m 2 min 0 min 520 W/m 10,5 km/h (2 Bft) 95,74 %
04.07.2017 16:58 25,7 C 25,6 C 28,3 C 54 % 0 lf 1018,9 hPa 0,0 l/m 2 min 0 min 527 W/m 10,5 km/h (2 Bft) 97,87 %
04.07.2017 17:00 25,6 C 25,6 C 26,7 C 54 % 0 lf 1018,9 hPa 0,0 l/m 0 min 0 min 129 W/m 8,4 km/h (2 Bft) 97,83 %
04.07.2017 17:02 25,4 C 25,0 C 26,1 C 56 % 0 lf 1018,9 hPa 0,0 l/m 0 min 0 min 113 W/m 10,5 km/h (2 Bft) 91,49 %
04.07.2017 17:04 25,3 C 24,4 C 25,6 C 56 % 0 lf 1019,0 hPa 0,0 l/m 0 min 0 min 116 W/m 10,5 km/h (2 Bft) 97,87 %
04.07.2017 17:06 25,2 C 24,4 C 25,0 C 55 % 0 lf 1018,9 hPa 0,0 l/m 0 min 0 min 133 W/m 10,5 km/h (2 Bft) 97,87 %
04.07.2017 17:08 25,1 C 24,4 C 25,0 C 56 % 0 lf 1019,0 hPa 0,0 l/m 0 min 0 min 157 W/m 8,4 km/h (2 Bft) 93,62 %
04.07.2017 17:10 25,1 C 24,4 C 25,0 C 56 % 0 lf 1018,9 hPa 0,0 l/m 0 min 0 min 164 W/m 6,3 km/h (2 Bft) 93,62 %
04.07.2017 17:12 25,0 C 25,0 C 25,6 C 56 % 0 lf 1019,0 hPa 0,0 l/m 0 min 0 min 222 W/m 4,2 km/h (1 Bft) 95,65 %
04.07.2017 17:14 24,9 C 25,0 C 26,1 C 56 % 0 lf 1018,8 hPa 0,0 l/m 2 min 0 min 659 W/m 4,2 km/h (1 Bft) 97,87 %
04.07.2017 17:16 24,9 C 25,6 C 26,1 C 57 % 0 lf 1018,9 hPa 0,0 l/m 2 min 0 min 578 W/m 4,2 km/h (1 Bft) 95,74 %
04.07.2017 17:18 24,9 C 26,1 C 25,6 C 56 % 0 lf 1018,8 hPa 0,0 l/m 2 min 0 min 659 W/m 10,5 km/h (2 Bft) 97,87 %
04.07.2017 17:20 24,8 C 26,7 C 25,0 C 55 % 0 lf 1018,9 hPa 0,0 l/m 2 min 0 min 665 W/m 6,3 km/h (2 Bft) 97,87 %
04.07.2017 17:22 24,8 C 26,7 C 25,0 C 55 % 0 lf 1018,8 hPa 0,0 l/m 2 min 0 min 644 W/m 6,3 km/h (2 Bft) 93,62 %
04.07.2017 17:24 24,9 C 26,7 C 25,6 C 55 % 0 lf 1018,9 hPa 0,0 l/m 2 min 0 min 627 W/m 8,4 km/h (2 Bft) 97,83 %
04.07.2017 17:26 25,0 C 26,7 C 25,6 C 56 % 0 lf 1018,7 hPa 0,0 l/m 2 min 0 min 612 W/m 10,5 km/h (2 Bft) 100,00 %
04.07.2017 17:28 25,0 C 26,1 C 25,6 C 56 % 0 lf 1018,7 hPa 0,0 l/m 0 min 0 min 200 W/m 16,7 km/h (3 Bft) 97,87 %
04.07.2017 17:30 25,1 C 25,6 C 25,0 C 56 % 0 lf 1018,7 hPa 0,0 l/m 0 min 0 min 128 W/m 6,3 km/h (2 Bft) 95,74 %
04.07.2017 17:32 25,0 C 25,6 C 25,0 C 56 % 0 lf 1018,7 hPa 0,0 l/m 0 min 0 min 134 W/m 6,3 km/h (2 Bft) 95,74 %
04.07.2017 17:34 25,0 C 25,0 C 24,4 C 55 % 0 lf 1018,6 hPa 0,0 l/m 0 min 0 min 132 W/m 8,4 km/h (2 Bft) 93,48 %
04.07.2017 17:36 25,0 C 25,0 C 24,4 C 56 % 0 lf 1018,6 hPa 0,0 l/m 0 min 0 min 129 W/m 6,3 km/h (2 Bft) 96,23 %
04.07.2017 17:38 24,9 C 25,0 C 24,4 C 57 % 0 lf 1018,6 hPa 0,0 l/m 0 min 0 min 146 W/m 4,2 km/h (1 Bft) 95,74 %
04.07.2017 17:40 24,9 C 25,0 C 24,4 C 56 % 0 lf 1018,6 hPa 0,0 l/m 0 min 0 min 177 W/m 4,2 km/h (1 Bft) 95,74 %
04.07.2017 17:42 24,9 C 25,6 C 24,4 C 56 % 0 lf 1018,6 hPa 0,0 l/m 0 min 0 min 263 W/m 4,2 km/h (1 Bft) 95,74 %
04.07.2017 17:44 24,9 C 25,6 C 24,4 C 55 % 0 lf 1018,6 hPa 0,0 l/m 2 min 0 min 576 W/m 8,4 km/h (2 Bft) 97,87 %
04.07.2017 17:46 24,9 C 25,6 C 24,4 C 55 % 0 lf 1018,5 hPa 0,0 l/m 2 min 0 min 579 W/m 8,4 km/h (2 Bft) 97,83 %
04.07.2017 17:48 24,9 C 26,1 C 25,0 C 55 % 0 lf 1018,5 hPa 0,0 l/m 2 min 0 min 575 W/m 8,4 km/h (2 Bft) 97,87 %
04.07.2017 17:50 24,9 C 26,1 C 25,0 C 55 % 0 lf 1018,5 hPa 0,0 l/m 2 min 0 min 566 W/m 10,5 km/h (2 Bft) 93,62 %
04.07.2017 17:52 25,0 C 26,1 C 24,4 C 55 % 0 lf 1018,5 hPa 0,0 l/m 2 min 0 min 554 W/m 10,5 km/h (2 Bft) 97,87 %
04.07.2017 17:54 25,1 C 26,1 C 24,4 C 54 % 0 lf 1018,6 hPa 0,0 l/m 2 min 0 min 546 W/m 8,4 km/h (2 Bft) 97,87 %
04.07.2017 17:56 25,1 C 26,1 C 24,4 C 54 % 0 lf 1018,6 hPa 0,0 l/m 2 min 0 min 321 W/m 8,4 km/h (2 Bft) 97,87 %
04.07.2017 17:58 25,1 C 26,1 C 24,4 C 55 % 0 lf 1018,4 hPa 0,0 l/m 0 min 0 min 155 W/m 4,2 km/h (1 Bft) 100,00 %
04.07.2017 18:00 25,1 C 26,1 C 23,9 C 53 % 0 lf 1018,4 hPa 0,0 l/m 2 min 0 min 382 W/m 6,3 km/h (2 Bft) 95,74 %
04.07.2017 18:02 25,1 C 25,6 C 24,4 C 53 % 0 lf 1018,4 hPa 0,0 l/m 2 min 0 min 501 W/m 4,2 km/h (1 Bft) 93,62 %
04.07.2017 18:04 25,1 C 25,6 C 24,4 C 53 % 0 lf 1018,4 hPa 0,0 l/m 2 min 0 min 510 W/m 4,2 km/h (1 Bft) 93,62 %
04.07.2017 18:06 25,1 C 25,6 C 24,4 C 54 % 0 lf 1018,4 hPa 0,0 l/m 2 min 0 min 525 W/m 8,4 km/h (2 Bft) 95,74 %
04.07.2017 18:08 25,1 C 25,6 C 23,9 C 55 % 0 lf 1018,5 hPa 0,0 l/m 2 min 0 min 516 W/m 8,4 km/h (2 Bft) 95,74 %
04.07.2017 18:10 25,1 C 25,6 C 23,9 C 55 % 0 lf 1018,5 hPa 0,0 l/m 2 min 0 min 502 W/m 14,6 km/h (3 Bft) 97,87 %
04.07.2017 18:12 25,1 C 25,6 C 23,3 C 55 % 0 lf 1018,4 hPa 0,0 l/m 2 min 0 min 489 W/m 8,4 km/h (2 Bft) 97,22 %
04.07.2017 18:14 25,1 C 25,6 C 23,3 C 55 % 0 lf 1018,4 hPa 0,0 l/m 2 min 0 min 482 W/m 10,5 km/h (2 Bft) 93,62 %
04.07.2017 18:16 25,0 C 25,6 C 23,3 C 54 % 0 lf 1018,5 hPa 0,0 l/m 2 min 0 min 453 W/m 8,4 km/h (2 Bft) 95,74 %
04.07.2017 18:18 25,0 C 25,0 C 23,3 C 54 % 0 lf 1018,4 hPa 0,0 l/m 2 min 0 min 261 W/m 6,3 km/h (2 Bft) 95,74 %
04.07.2017 18:20 24,9 C 25,0 C 23,3 C 54 % 0 lf 1018,4 hPa 0,0 l/m 2 min 0 min 443 W/m 8,4 km/h (2 Bft) 94,83 %
04.07.2017 18:22 24,9 C 25,0 C 23,3 C 54 % 0 lf 1018,4 hPa 0,0 l/m 2 min 0 min 441 W/m 8,4 km/h (2 Bft) 95,74 %
04.07.2017 18:24 24,9 C 25,0 C 22,8 C 54 % 0 lf 1018,3 hPa 0,0 l/m 2 min 0 min 341 W/m 8,4 km/h (2 Bft) 94,29 %
04.07.2017 18:26 24,8 C 24,4 C 22,8 C 55 % 0 lf 1018,3 hPa 0,0 l/m 0 min 0 min 93 W/m 8,4 km/h (2 Bft) 98,31 %
04.07.2017 18:28 24,8 C 24,4 C 22,8 C 54 % 0 lf 1018,4 hPa 0,0 l/m 0 min 0 min 109 W/m 6,3 km/h (2 Bft) 97,14 %
04.07.2017 18:30 24,8 C 24,4 C 22,8 C 54 % 0 lf 1018,4 hPa 0,0 l/m 2 min 0 min 313 W/m 6,3 km/h (2 Bft) 94,92 %
04.07.2017 18:32 24,7 C 24,4 C 22,8 C 54 % 0 lf 1018,3 hPa 0,0 l/m 2 min 0 min 401 W/m 6,3 km/h (2 Bft) 97,22 %
04.07.2017 18:34 24,6 C 24,4 C 22,8 C 54 % 0 lf 1018,3 hPa 0,0 l/m 2 min 0 min 385 W/m 6,3 km/h (2 Bft) 97,87 %
04.07.2017 18:36 24,6 C 24,4 C 22,8 C 54 % 0 lf 1018,3 hPa 0,0 l/m 2 min 0 min 384 W/m 6,3 km/h (2 Bft) 97,96 %
04.07.2017 18:38 24,5 C 23,9 C 22,8 C 53 % 0 lf 1018,4 hPa 0,0 l/m 2 min 0 min 378 W/m 6,3 km/h (2 Bft) 97,87 %
04.07.2017 18:40 24,5 C 24,4 C 22,8 C 53 % 0 lf 1018,5 hPa 0,0 l/m 2 min 0 min 361 W/m 2,1 km/h (1 Bft) 91,49 %
04.07.2017 18:42 24,4 C 24,4 C 22,8 C 53 % 0 lf 1018,4 hPa 0,0 l/m 2 min 0 min 361 W/m 2,1 km/h (1 Bft) 97,87 %
04.07.2017 18:44 24,4 C 24,4 C 22,8 C 53 % 0 lf 1018,3 hPa 0,0 l/m 2 min 0 min 369 W/m 6,3 km/h (2 Bft) 95,65 %
04.07.2017 18:46 24,4 C 24,4 C 22,8 C 53 % 0 lf 1018,3 hPa 0,0 l/m 2 min 0 min 371 W/m 6,3 km/h (2 Bft) 97,87 %
04.07.2017 18:48 24,3 C 24,4 C 22,8 C 54 % 0 lf 1018,2 hPa 0,0 l/m 2 min 0 min 370 W/m 6,3 km/h (2 Bft) 97,87 %
04.07.2017 18:50 24,3 C 24,4 C 22,8 C 54 % 0 lf 1018,2 hPa 0,0 l/m 2 min 0 min 358 W/m 6,3 km/h (2 Bft) 97,87 %
04.07.2017 18:52 24,3 C 24,4 C 22,8 C 55 % 0 lf 1018,2 hPa 0,0 l/m 2 min 0 min 336 W/m 10,5 km/h (2 Bft) 97,87 %
04.07.2017 18:54 24,3 C 24,4 C 22,8 C 55 % 0 lf 1018,2 hPa 0,0 l/m 2 min 0 min 298 W/m 10,5 km/h (2 Bft) 97,87 %
04.07.2017 18:56 24,3 C 24,4 C 22,8 C 55 % 0 lf 1018,2 hPa 0,0 l/m 2 min 0 min 295 W/m 6,3 km/h (2 Bft) 93,48 %
04.07.2017 18:58 24,2 C 24,4 C 22,8 C 55 % 0 lf 1018,2 hPa 0,0 l/m 2 min 0 min 320 W/m 4,2 km/h (1 Bft) 97,87 %
04.07.2017 19:00 24,2 C 24,4 C 22,8 C 56 % 0 lf 1018,2 hPa 0,0 l/m 2 min 0 min 306 W/m 6,3 km/h (2 Bft) 97,87 %
04.07.2017 19:02 24,2 C 24,4 C 22,8 C 56 % 0 lf 1018,1 hPa 0,0 l/m 2 min 0 min 311 W/m 8,4 km/h (2 Bft) 97,87 %
04.07.2017 19:04 24,2 C 23,9 C 22,8 C 56 % 0 lf 1018,1 hPa 0,0 l/m 0 min 0 min 109 W/m 10,5 km/h (2 Bft) 97,87 %
04.07.2017 19:06 24,2 C 23,9 C 22,8 C 56 % 0 lf 1018,1 hPa 0,0 l/m 0 min 0 min 137 W/m 8,4 km/h (2 Bft) 95,74 %
04.07.2017 19:08 24,2 C 23,9 C 22,2 C 57 % 0 lf 1018,0 hPa 0,0 l/m 2 min 0 min 266 W/m 6,3 km/h (2 Bft) 95,65 %
04.07.2017 19:10 24,1 C 23,9 C 22,2 C 57 % 0 lf 1018,0 hPa 0,0 l/m 2 min 0 min 282 W/m 12,6 km/h (3 Bft) 93,62 %
04.07.2017 19:12 24,1 C 23,9 C 22,8 C 57 % 0 lf 1018,1 hPa 0,0 l/m 2 min 0 min 290 W/m 10,5 km/h (2 Bft) 95,74 %
04.07.2017 19:14 24,1 C 23,9 C 22,2 C 56 % 0 lf 1018,0 hPa 0,0 l/m 2 min 0 min 222 W/m 10,5 km/h (2 Bft) 93,62 %
04.07.2017 19:16 24,1 C 23,9 C 22,2 C 56 % 0 lf 1018,1 hPa 0,0 l/m 2 min 0 min 256 W/m 8,4 km/h (2 Bft) 95,74 %
04.07.2017 19:18 24,0 C 23,9 C 22,2 C 56 % 0 lf 1018,0 hPa 0,0 l/m 2 min 0 min 248 W/m 6,3 km/h (2 Bft) 95,74 %
04.07.2017 19:20 24,0 C 23,9 C 22,2 C 56 % 0 lf 1018,0 hPa 0,0 l/m 2 min 0 min 248 W/m 2,1 km/h (1 Bft) 93,48 %
04.07.2017 19:22 23,9 C 23,9 C 22,2 C 56 % 0 lf 1018,0 hPa 0,0 l/m 2 min 0 min 254 W/m 4,2 km/h (1 Bft) 95,74 %
04.07.2017 19:24 23,9 C 23,9 C 22,2 C 57 % 0 lf 1018,0 hPa 0,0 l/m 2 min 0 min 271 W/m 4,2 km/h (1 Bft) 93,62 %
04.07.2017 19:26 23,9 C 23,9 C 22,2 C 57 % 0 lf 1018,0 hPa 0,0 l/m 2 min 0 min 274 W/m 4,2 km/h (1 Bft) 93,62 %
04.07.2017 19:28 23,9 C 23,9 C 22,2 C 57 % 0 lf 1018,1 hPa 0,0 l/m 2 min 0 min 269 W/m 6,3 km/h (2 Bft) 93,62 %
04.07.2017 19:30 23,9 C 23,9 C 22,2 C 57 % 0 lf 1018,0 hPa 0,0 l/m 2 min 0 min 265 W/m 6,3 km/h (2 Bft) 95,74 %
04.07.2017 19:32 23,8 C 23,3 C 18,3 C 58 % 0 lf 1018,0 hPa 0,0 l/m 2 min 0 min 259 W/m 4,2 km/h (1 Bft) 93,48 %
04.07.2017 19:34 23,8 C 23,3 C 17,8 C 59 % 0 lf 1018,0 hPa 0,0 l/m 2 min 0 min 245 W/m 6,3 km/h (2 Bft) 95,74 %
04.07.2017 19:36 23,8 C 23,3 C 17,8 C 59 % 0 lf 1018,1 hPa 0,0 l/m 2 min 0 min 238 W/m 6,3 km/h (2 Bft) 95,74 %
04.07.2017 19:38 23,8 C 23,3 C 17,8 C 59 % 0 lf 1018,0 hPa 0,0 l/m 2 min 0 min 221 W/m 4,2 km/h (1 Bft) 96,46 %
04.07.2017 19:40 23,7 C 23,3 C 18,3 C 58 % 0 lf 1018,0 hPa 0,0 l/m 2 min 0 min 208 W/m 6,3 km/h (2 Bft) 96,61 %
04.07.2017 19:42 23,7 C 23,3 C 18,3 C 58 % 0 lf 1018,0 hPa 0,0 l/m 2 min 0 min 212 W/m 8,4 km/h (2 Bft) 93,62 %
04.07.2017 19:44 23,7 C 23,3 C 18,3 C 59 % 0 lf 1018,0 hPa 0,0 l/m 2 min 0 min 217 W/m 6,3 km/h (2 Bft) 93,48 %
04.07.2017 19:46 23,7 C 23,3 C 18,9 C 59 % 0 lf 1018,0 hPa 0,0 l/m 2 min 0 min 204 W/m 8,4 km/h (2 Bft) 93,62 %
04.07.2017 19:48 23,7 C 23,3 C 18,9 C 60 % 0 lf 1018,0 hPa 0,0 l/m 2 min 0 min 196 W/m 8,4 km/h (2 Bft) 97,87 %
04.07.2017 19:50 23,6 C 23,3 C 20,0 C 61 % 0 lf 1018,0 hPa 0,0 l/m 2 min 0 min 181 W/m 8,4 km/h (2 Bft) 100,00 %
04.07.2017 19:52 23,6 C 23,3 C 20,6 C 60 % 0 lf 1018,0 hPa 0,0 l/m 2 min 0 min 168 W/m 8,4 km/h (2 Bft) 97,87 %
04.07.2017 19:54 23,6 C 23,3 C 20,6 C 60 % 0 lf 1017,9 hPa 0,0 l/m 2 min 0 min 161 W/m 8,4 km/h (2 Bft) 100,00 %
04.07.2017 19:56 23,6 C 23,3 C 20,6 C 60 % 0 lf 1017,9 hPa 0,0 l/m 0 min 0 min 123 W/m 8,4 km/h (2 Bft) 97,83 %
04.07.2017 19:58 23,6 C 23,3 C 20,6 C 60 % 0 lf 1017,9 hPa 0,0 l/m 0 min 0 min 105 W/m 6,3 km/h (2 Bft) 100,00 %
04.07.2017 20:00 23,6 C 23,3 C 20,6 C 60 % 0 lf 1017,9 hPa 0,0 l/m 0 min 0 min 102 W/m 6,3 km/h (2 Bft) 100,00 %
04.07.2017 20:02 23,5 C 22,8 C 21,1 C 60 % 0 lf 1017,8 hPa 0,0 l/m 0 min 0 min 89 W/m 6,3 km/h (2 Bft) 97,87 %
04.07.2017 20:04 23,5 C 22,8 C 21,1 C 61 % 0 lf 1017,9 hPa 0,0 l/m 0 min 0 min 82 W/m 6,3 km/h (2 Bft) 97,87 %
04.07.2017 20:06 23,5 C 22,8 C 21,1 C 61 % 0 lf 1017,8 hPa 0,0 l/m 0 min 0 min 83 W/m 10,5 km/h (2 Bft) 100,00 %
04.07.2017 20:08 23,5 C 22,8 C 21,1 C 60 % 0 lf 1017,8 hPa 0,0 l/m 0 min 0 min 87 W/m 8,4 km/h (2 Bft) 100,00 %
04.07.2017 20:10 23,4 C 22,8 C 21,1 C 60 % 0 lf 1017,8 hPa 0,0 l/m 0 min 0 min 88 W/m 8,4 km/h (2 Bft) 100,00 %
04.07.2017 20:12 23,4 C 22,8 C 21,1 C 60 % 0 lf 1017,8 hPa 0,0 l/m 0 min 0 min 89 W/m 6,3 km/h (2 Bft) 100,00 %
04.07.2017 20:14 23,4 C 22,8 C 20,6 C 61 % 0 lf 1017,8 hPa 0,0 l/m 2 min 0 min 105 W/m 6,3 km/h (2 Bft) 100,00 %
04.07.2017 20:16 23,4 C 22,8 C 20,6 C 62 % 0 lf 1017,8 hPa 0,0 l/m 2 min 0 min 104 W/m 8,4 km/h (2 Bft) 100,00 %
04.07.2017 20:18 23,4 C 22,8 C 21,1 C 63 % 0 lf 1017,8 hPa 0,0 l/m 0 min 0 min 90 W/m 8,4 km/h (2 Bft) 100,00 %
04.07.2017 20:20 23,4 C 22,8 C 21,1 C 63 % 0 lf 1017,8 hPa 0,0 l/m 0 min 0 min 81 W/m 6,3 km/h (2 Bft) 97,87 %
04.07.2017 20:22 23,4 C 22,8 C 21,1 C 64 % 0 lf 1017,8 hPa 0,0 l/m 0 min 0 min 76 W/m 8,4 km/h (2 Bft) 97,87 %
04.07.2017 20:24 23,3 C 22,8 C 21,1 C 64 % 0 lf 1017,8 hPa 0,0 l/m 0 min 0 min 71 W/m 10,5 km/h (2 Bft) 100,00 %
04.07.2017 20:26 23,3 C 22,2 C 21,1 C 65 % 0 lf 1017,8 hPa 0,0 l/m 0 min 0 min 69 W/m 10,5 km/h (2 Bft) 100,00 %
04.07.2017 20:28 23,3 C 22,2 C 21,1 C 65 % 0 lf 1017,8 hPa 0,0 l/m 0 min 0 min 69 W/m 10,5 km/h (2 Bft) 100,00 %
04.07.2017 20:30 23,2 C 22,2 C 21,1 C 65 % 0 lf 1017,8 hPa 0,0 l/m 0 min 0 min 73 W/m 10,5 km/h (2 Bft) 100,00 %
04.07.2017 20:32 23,2 C 22,2 C 21,1 C 66 % 0 lf 1017,8 hPa 0,0 l/m 0 min 0 min 78 W/m 10,5 km/h (2 Bft) 100,00 %
04.07.2017 20:34 23,1 C 22,2 C 21,1 C 66 % 0 lf 1017,8 hPa 0,0 l/m 0 min 0 min 75 W/m 10,5 km/h (2 Bft) 97,87 %
04.07.2017 20:36 23,1 C 22,2 C 21,1 C 66 % 0 lf 1017,8 hPa 0,0 l/m 0 min 0 min 68 W/m 8,4 km/h (2 Bft) 97,87 %
04.07.2017 20:38 23,0 C 22,2 C 21,1 C 66 % 0 lf 1017,8 hPa 0,0 l/m 0 min 0 min 65 W/m 8,4 km/h (2 Bft) 100,00 %
04.07.2017 20:40 23,0 C 22,2 C 21,1 C 67 % 0 lf 1017,8 hPa 0,0 l/m 0 min 0 min 66 W/m 10,5 km/h (2 Bft) 95,74 %
04.07.2017 20:42 22,9 C 22,2 C 21,1 C 67 % 0 lf 1017,9 hPa 0,0 l/m 2 min 0 min 74 W/m 10,5 km/h (2 Bft) 100,00 %
04.07.2017 20:44 22,9 C 22,2 C 21,1 C 67 % 0 lf 1017,9 hPa 0,0 l/m 2 min 0 min 75 W/m 8,4 km/h (2 Bft) 100,00 %
04.07.2017 20:46 22,8 C 22,2 C 20,6 C 67 % 0 lf 1017,9 hPa 0,0 l/m 2 min 0 min 72 W/m 6,3 km/h (2 Bft) 97,87 %
04.07.2017 20:48 22,8 C 22,2 C 20,6 C 68 % 0 lf 1017,8 hPa 0,0 l/m 2 min 0 min 72 W/m 6,3 km/h (2 Bft) 95,74 %
04.07.2017 20:50 22,7 C 22,2 C 20,6 C 68 % 0 lf 1017,9 hPa 0,0 l/m 2 min 0 min 74 W/m 10,5 km/h (2 Bft) 97,87 %
04.07.2017 20:52 22,7 C 22,2 C 20,6 C 68 % 0 lf 1017,9 hPa 0,0 l/m 2 min 0 min 73 W/m 8,4 km/h (2 Bft) 97,87 %
04.07.2017 20:54 22,7 C 22,2 C 20,6 C 68 % 0 lf 1017,9 hPa 0,0 l/m 2 min 0 min 69 W/m 6,3 km/h (2 Bft) 97,83 %
04.07.2017 20:56 22,6 C 21,7 C 20,6 C 68 % 0 lf 1017,8 hPa 0,0 l/m 2 min 0 min 62 W/m 6,3 km/h (2 Bft) 97,87 %
04.07.2017 20:58 22,6 C 21,7 C 20,6 C 68 % 0 lf 1017,8 hPa 0,0 l/m 2 min 0 min 58 W/m 8,4 km/h (2 Bft) 97,87 %
04.07.2017 21:00 22,6 C 21,7 C 20,6 C 68 % 0 lf 1017,8 hPa 0,0 l/m 2 min 0 min 53 W/m 6,3 km/h (2 Bft) 97,87 %
04.07.2017 21:02 22,5 C 21,7 C 20,6 C 69 % 0 lf 1017,8 hPa 0,0 l/m 2 min 0 min 50 W/m 10,5 km/h (2 Bft) 95,74 %
04.07.2017 21:04 22,5 C 21,7 C 20,6 C 69 % 0 lf 1017,8 hPa 0,0 l/m 2 min 0 min 47 W/m 10,5 km/h (2 Bft) 95,74 %
04.07.2017 21:06 22,4 C 21,7 C 20,6 C 69 % 0 lf 1017,8 hPa 0,0 l/m 2 min 0 min 44 W/m 8,4 km/h (2 Bft) 95,65 %
04.07.2017 21:08 22,4 C 21,7 C 20,0 C 69 % 0 lf 1017,9 hPa 0,0 l/m 2 min 0 min 41 W/m 10,5 km/h (2 Bft) 97,87 %
04.07.2017 21:10 22,3 C 21,7 C 20,0 C 69 % 0 lf 1017,8 hPa 0,0 l/m 2 min 0 min 42 W/m 8,4 km/h (2 Bft) 95,74 %
04.07.2017 21:12 22,3 C 21,1 C 20,0 C 69 % 0 lf 1017,8 hPa 0,0 l/m 2 min 0 min 71 W/m 8,4 km/h (2 Bft) 97,87 %
04.07.2017 21:14 22,2 C 21,1 C 20,0 C 69 % 0 lf 1017,8 hPa 0,0 l/m 2 min 0 min 71 W/m 6,3 km/h (2 Bft) 93,62 %
04.07.2017 21:16 22,2 C 21,1 C 20,0 C 69 % 0 lf 1017,8 hPa 0,0 l/m 2 min 0 min 66 W/m 8,4 km/h (2 Bft) 95,65 %
04.07.2017 21:18 22,1 C 21,1 C 20,0 C 70 % 0 lf 1017,8 hPa 0,0 l/m 2 min 0 min 62 W/m 8,4 km/h (2 Bft) 95,74 %
04.07.2017 21:20 22,1 C 21,1 C 20,0 C 70 % 0 lf 1017,8 hPa 0,0 l/m 2 min 0 min 62 W/m 8,4 km/h (2 Bft) 95,74 %
04.07.2017 21:22 22,1 C 21,1 C 20,0 C 70 % 0 lf 1017,8 hPa 0,0 l/m 2 min 0 min 47 W/m 10,5 km/h (2 Bft) 89,36 %
04.07.2017 21:24 22,0 C 21,1 C 19,4 C 70 % 0 lf 1017,8 hPa 0,0 l/m 2 min 0 min 25 W/m 8,4 km/h (2 Bft) 93,62 %
04.07.2017 21:26 22,0 C 20,6 C 19,4 C 70 % 0 lf 1017,8 hPa 0,0 l/m 2 min 0 min 31 W/m 8,4 km/h (2 Bft) 93,62 %
04.07.2017 21:28 21,9 C 20,6 C 19,4 C 70 % 0 lf 1017,9 hPa 0,0 l/m 2 min 0 min 27 W/m 8,4 km/h (2 Bft) 93,48 %
04.07.2017 21:30 21,9 C 20,6 C 19,4 C 70 % 0 lf 1017,9 hPa 0,0 l/m 0 min 0 min 19 W/m 8,4 km/h (2 Bft) 91,49 %
04.07.2017 21:32 21,8 C 20,6 C 19,4 C 71 % 0 lf 1017,9 hPa 0,0 l/m 0 min 0 min 15 W/m 10,5 km/h (2 Bft) 93,62 %
04.07.2017 21:34 21,8 C 20,6 C 19,4 C 71 % 0 lf 1017,9 hPa 0,0 l/m 0 min 0 min 14 W/m 8,4 km/h (2 Bft) 93,62 %
04.07.2017 21:36 21,7 C 20,6 C 19,4 C 71 % 0 lf 1017,9 hPa 0,0 l/m 0 min 0 min 12 W/m 10,5 km/h (2 Bft) 93,62 %
04.07.2017 21:38 21,7 C 20,6 C 19,4 C 71 % 0 lf 1017,9 hPa 0,0 l/m 0 min 0 min 13 W/m 6,3 km/h (2 Bft) 91,49 %
04.07.2017 21:40 21,6 C 20,6 C 19,4 C 71 % 0 lf 1017,9 hPa 0,0 l/m 0 min 0 min 12 W/m 8,4 km/h (2 Bft) 93,48 %
04.07.2017 21:42 21,6 C 20,0 C 18,9 C 71 % 0 lf 1018,0 hPa 0,0 l/m 0 min 0 min 10 W/m 6,3 km/h (2 Bft) 93,62 %
04.07.2017 21:44 21,5 C 20,0 C 18,9 C 72 % 0 lf 1018,0 hPa 0,0 l/m 0 min 0 min 9 W/m 6,3 km/h (2 Bft) 89,36 %
04.07.2017 21:46 21,4 C 20,0 C 18,9 C 72 % 0 lf 1018,0 hPa 0,0 l/m 0 min 0 min 7 W/m 8,4 km/h (2 Bft) 89,36 %
04.07.2017 21:48 21,4 C 20,0 C 18,9 C 72 % 0 lf 1018,0 hPa 0,0 l/m 0 min 0 min 7 W/m 6,3 km/h (2 Bft) 95,74 %
04.07.2017 21:50 21,4 C 20,0 C 18,9 C 72 % 0 lf 1018,0 hPa 0,0 l/m 0 min 0 min 6 W/m 6,3 km/h (2 Bft) 93,62 %
04.07.2017 21:52 21,3 C 20,0 C 18,9 C 72 % 0 lf 1018,0 hPa 0,0 l/m 0 min 0 min 5 W/m 6,3 km/h (2 Bft) 95,65 %
04.07.2017 21:54 21,3 C 20,0 C 18,9 C 72 % 0 lf 1018,0 hPa 0,0 l/m 0 min 0 min 5 W/m 6,3 km/h (2 Bft) 93,62 %
04.07.2017 21:56 21,2 C 20,0 C 18,3 C 72 % 0 lf 1017,9 hPa 0,0 l/m 0 min 0 min 5 W/m 6,3 km/h (2 Bft) 93,62 %
04.07.2017 21:58 21,2 C 19,4 C 18,3 C 72 % 0 lf 1017,9 hPa 0,0 l/m 0 min 0 min 5 W/m 6,3 km/h (2 Bft) 93,62 %
04.07.2017 22:00 21,1 C 19,4 C 18,3 C 72 % 0 lf 1018,0 hPa 0,0 l/m 0 min 0 min 5 W/m 8,4 km/h (2 Bft) 93,62 %
04.07.2017 22:02 21,1 C 19,4 C 18,3 C 73 % 0 lf 1018,0 hPa 0,0 l/m 0 min 0 min 5 W/m 6,3 km/h (2 Bft) 89,36 %
04.07.2017 22:04 21,1 C 19,4 C 17,8 C 73 % 0 lf 1018,0 hPa 0,0 l/m 0 min 0 min 3 W/m 4,2 km/h (1 Bft) 91,30 %
04.07.2017 22:06 21,0 C 19,4 C 17,8 C 73 % 0 lf 1018,0 hPa 0,0 l/m 0 min 0 min 5 W/m 6,3 km/h (2 Bft) 95,74 %
04.07.2017 22:08 21,0 C 19,4 C 17,8 C 73 % 0 lf 1018,0 hPa 0,0 l/m 0 min 0 min 4 W/m 4,2 km/h (1 Bft) 95,74 %
04.07.2017 22:10 20,9 C 18,9 C 17,2 C 73 % 0 lf 1018,0 hPa 0,0 l/m 0 min 0 min 0 W/m 4,2 km/h (1 Bft) 97,87 %
04.07.2017 22:12 20,9 C 18,9 C 17,2 C 73 % 0 lf 1018,0 hPa 0,0 l/m 0 min 0 min 0 W/m 6,3 km/h (2 Bft) 97,87 %
04.07.2017 22:14 20,9 C 18,9 C 17,2 C 73 % 0 lf 1017,9 hPa 0,0 l/m 0 min 0 min 0 W/m 8,4 km/h (2 Bft) 97,87 %
04.07.2017 22:16 20,8 C 18,9 C 17,8 C 73 % 0 lf 1018,0 hPa 0,0 l/m 0 min 0 min 0 W/m 6,3 km/h (2 Bft) 97,83 %
04.07.2017 22:18 20,8 C 18,9 C 17,8 C 73 % 0 lf 1018,0 hPa 0,0 l/m 0 min 0 min 0 W/m 4,2 km/h (1 Bft) 97,87 %
04.07.2017 22:20 20,7 C 18,9 C 17,8 C 74 % 0 lf 1018,0 hPa 0,0 l/m 0 min 0 min 0 W/m 6,3 km/h (2 Bft) 93,62 %
04.07.2017 22:22 20,7 C 18,9 C 17,8 C 74 % 0 lf 1018,0 hPa 0,0 l/m 0 min 0 min 0 W/m 6,3 km/h (2 Bft) 97,87 %
04.07.2017 22:24 20,6 C 18,9 C 17,8 C 74 % 0 lf 1018,0 hPa 0,0 l/m 0 min 0 min 0 W/m 6,3 km/h (2 Bft) 95,74 %
04.07.2017 22:26 20,6 C 18,9 C 17,8 C 74 % 0 lf 1018,1 hPa 0,0 l/m 0 min 0 min 0 W/m 6,3 km/h (2 Bft) 97,87 %
04.07.2017 22:28 20,6 C 18,9 C 17,8 C 74 % 0 lf 1018,1 hPa 0,0 l/m 0 min 0 min 0 W/m 6,3 km/h (2 Bft) 97,83 %
04.07.2017 22:30 20,5 C 18,9 C 17,8 C 74 % 0 lf 1018,1 hPa 0,0 l/m 0 min 0 min 0 W/m 6,3 km/h (2 Bft) 97,87 %
04.07.2017 22:32 20,4 C 18,9 C 17,2 C 74 % 0 lf 1018,1 hPa 0,0 l/m 0 min 0 min 0 W/m 4,2 km/h (1 Bft) 97,87 %
04.07.2017 22:34 20,4 C 18,9 C 17,2 C 74 % 0 lf 1018,1 hPa 0,0 l/m 0 min 0 min 0 W/m 4,2 km/h (1 Bft) 100,00 %
04.07.2017 22:36 20,4 C 18,3 C 17,2 C 74 % 0 lf 1018,1 hPa 0,0 l/m 0 min 0 min 0 W/m 4,2 km/h (1 Bft) 97,87 %
04.07.2017 22:38 20,3 C 18,3 C 16,7 C 74 % 0 lf 1018,0 hPa 0,0 l/m 0 min 0 min 0 W/m 4,2 km/h (1 Bft) 100,00 %
04.07.2017 22:40 20,3 C 18,3 C 16,7 C 74 % 0 lf 1018,0 hPa 0,0 l/m 0 min 0 min 0 W/m 4,2 km/h (1 Bft) 100,00 %
04.07.2017 22:42 20,3 C 18,3 C 16,7 C 74 % 0 lf 1017,9 hPa 0,0 l/m 0 min 0 min 0 W/m 4,2 km/h (1 Bft) 97,87 %
04.07.2017 22:44 20,2 C 18,3 C 16,7 C 74 % 0 lf 1018,0 hPa 0,0 l/m 0 min 0 min 0 W/m 4,2 km/h (1 Bft) 100,00 %
04.07.2017 22:46 20,2 C 18,3 C 16,7 C 74 % 0 lf 1018,0 hPa 0,0 l/m 0 min 0 min 0 W/m 4,2 km/h (1 Bft) 100,00 %
04.07.2017 22:48 20,2 C 17,8 C 16,7 C 75 % 0 lf 1018,0 hPa 0,0 l/m 0 min 0 min 0 W/m 4,2 km/h (1 Bft) 100,00 %
04.07.2017 22:50 20,1 C 17,8 C 16,1 C 75 % 0 lf 1018,0 hPa 0,0 l/m 0 min 0 min 5 W/m 4,2 km/h (1 Bft) 95,74 %
04.07.2017 22:52 20,1 C 17,8 C 16,1 C 75 % 0 lf 1018,0 hPa 0,0 l/m 0 min 0 min 2 W/m 2,1 km/h (1 Bft) 100,00 %
04.07.2017 22:54 20,0 C 17,8 C 16,1 C 75 % 0 lf 1018,0 hPa 0,0 l/m 0 min 0 min 0 W/m 2,1 km/h (1 Bft) 97,87 %
04.07.2017 22:56 19,9 C 17,8 C 16,1 C 75 % 0 lf 1018,0 hPa 0,0 l/m 0 min 0 min 0 W/m 0,0 km/h (0 Bft) 100,00 %
04.07.2017 22:58 19,9 C 17,8 C 16,1 C 75 % 0 lf 1017,9 hPa 0,0 l/m 0 min 0 min 0 W/m 2,1 km/h (1 Bft) 97,87 %
04.07.2017 23:00 19,9 C 17,8 C 16,1 C 75 % 0 lf 1018,0 hPa 0,0 l/m 0 min 0 min 2 W/m 2,1 km/h (1 Bft) 100,00 %
04.07.2017 23:02 19,8 C 17,8 C 16,1 C 75 % 0 lf 1017,9 hPa 0,0 l/m 0 min 0 min 0 W/m 0,0 km/h (0 Bft) 97,83 %
04.07.2017 23:04 19,8 C 17,8 C 16,1 C 75 % 0 lf 1017,9 hPa 0,0 l/m 0 min 0 min 0 W/m 0,0 km/h (0 Bft) 97,87 %
04.07.2017 23:06 19,8 C 17,2 C 16,1 C 75 % 0 lf 1017,9 hPa 0,0 l/m 0 min 0 min 0 W/m 0,0 km/h (0 Bft) 97,87 %
04.07.2017 23:08 19,7 C 17,2 C 16,1 C 76 % 0 lf 1017,9 hPa 0,0 l/m 0 min 0 min 0 W/m 0,0 km/h (0 Bft) 100,00 %
04.07.2017 23:10 19,7 C 17,2 C 15,6 C 76 % 0 lf 1017,9 hPa 0,0 l/m 0 min 0 min 0 W/m 0,0 km/h (0 Bft) 97,87 %
04.07.2017 23:12 19,6 C 17,2 C 15,6 C 76 % 0 lf 1017,9 hPa 0,0 l/m 0 min 0 min 0 W/m 0,0 km/h (0 Bft) 100,00 %
04.07.2017 23:14 19,6 C 17,2 C 15,6 C 76 % 0 lf 1017,9 hPa 0,0 l/m 0 min 0 min 3 W/m 0,0 km/h (0 Bft) 100,00 %
04.07.2017 23:16 19,5 C 17,2 C 15,6 C 77 % 0 lf 1017,9 hPa 0,0 l/m 0 min 0 min 0 W/m 0,0 km/h (0 Bft) 97,87 %
04.07.2017 23:18 19,5 C 17,2 C 15,6 C 77 % 0 lf 1017,9 hPa 0,0 l/m 0 min 0 min 0 W/m 0,0 km/h (0 Bft) 95,74 %
04.07.2017 23:20 19,4 C 17,2 C 15,6 C 77 % 0 lf 1017,9 hPa 0,0 l/m 0 min 0 min 0 W/m 0,0 km/h (0 Bft) 97,87 %
04.07.2017 23:22 19,4 C 17,2 C 15,6 C 77 % 0 lf 1017,9 hPa 0,0 l/m 0 min 0 min 0 W/m 0,0 km/h (0 Bft) 97,87 %
04.07.2017 23:24 19,3 C 17,2 C 15,6 C 77 % 0 lf 1018,0 hPa 0,0 l/m 0 min 0 min 0 W/m 0,0 km/h (0 Bft) 97,87 %
04.07.2017 23:26 19,3 C 17,2 C 15,6 C 77 % 0 lf 1018,0 hPa 0,0 l/m 0 min 0 min 0 W/m 0,0 km/h (0 Bft) 97,83 %
04.07.2017 23:28 19,2 C 17,2 C 15,6 C 77 % 0 lf 1018,0 hPa 0,0 l/m 0 min 0 min 0 W/m 0,0 km/h (0 Bft) 95,74 %
04.07.2017 23:30 19,2 C 17,2 C 15,6 C 78 % 0 lf 1018,0 hPa 0,0 l/m 0 min 0 min 0 W/m 0,0 km/h (0 Bft) 95,74 %
04.07.2017 23:32 19,2 C 16,7 C 15,6 C 78 % 0 lf 1018,0 hPa 0,0 l/m 0 min 0 min 0 W/m 0,0 km/h (0 Bft) 95,74 %
04.07.2017 23:34 19,1 C 16,7 C 15,6 C 78 % 0 lf 1018,0 hPa 0,0 l/m 0 min 0 min 0 W/m 0,0 km/h (0 Bft) 97,87 %
04.07.2017 23:36 19,1 C 16,7 C 15,0 C 78 % 0 lf 1018,0 hPa 0,0 l/m 0 min 0 min 0 W/m 0,0 km/h (0 Bft) 95,74 %
04.07.2017 23:38 19,0 C 16,7 C 15,0 C 78 % 0 lf 1018,0 hPa 0,0 l/m 0 min 0 min 0 W/m 0,0 km/h (0 Bft) 97,83 %
04.07.2017 23:40 18,9 C 16,7 C 15,0 C 79 % 0 lf 1018,0 hPa 0,0 l/m 0 min 0 min 0 W/m 0,0 km/h (0 Bft) 97,87 %
04.07.2017 23:42 18,9 C 16,7 C 15,0 C 79 % 0 lf 1018,0 hPa 0,0 l/m 0 min 0 min 0 W/m 0,0 km/h (0 Bft) 97,87 %
04.07.2017 23:44 18,8 C 16,7 C 15,0 C 79 % 0 lf 1018,0 hPa 0,0 l/m 0 min 0 min 0 W/m 0,0 km/h (0 Bft) 97,87 %
04.07.2017 23:46 18,8 C 16,7 C 15,0 C 79 % 0 lf 1018,0 hPa 0,0 l/m 0 min 0 min 0 W/m 0,0 km/h (0 Bft) 95,74 %
04.07.2017 23:48 18,8 C 16,7 C 15,0 C 80 % 0 lf 1018,0 hPa 0,0 l/m 0 min 0 min 0 W/m 0,0 km/h (0 Bft) 97,87 %
04.07.2017 23:50 18,7 C 16,7 C 15,0 C 79 % 0 lf 1017,9 hPa 0,0 l/m 0 min 0 min 0 W/m 0,0 km/h (0 Bft) 100,00 %
04.07.2017 23:52 18,7 C 16,7 C 15,0 C 80 % 0 lf 1018,0 hPa 0,0 l/m 0 min 0 min 0 W/m 0,0 km/h (0 Bft) 97,87 %
04.07.2017 23:54 18,6 C 16,7 C 15,0 C 80 % 0 lf 1017,9 hPa 0,0 l/m 0 min 0 min 0 W/m 0,0 km/h (0 Bft) 100,00 %
04.07.2017 23:56 18,6 C 16,1 C 15,0 C 80 % 0 lf 1017,9 hPa 0,0 l/m 0 min 0 min 0 W/m 0,0 km/h (0 Bft) 100,00 %
04.07.2017 23:58 18,5 C 16,1 C 15,0 C 80 % 0 lf 1017,9 hPa 0,0 l/m 0 min 0 min 0 W/m 0,0 km/h (0 Bft) 97,87 %
_ Min-Zeit 05:50 04:10 03:14 16:46 00:00 20:02 - - - - 03:04 15:04
Minimum _ 14,8 C 14,4 C 13,3 C 53 % 0 lf 1017,8 hPa - - - - 0,0 km/h (0 Bft) 86,96 %
_ Max-Zeit 16:34 13:50 16:26 07:16 00:00 09:46 00:00 10:08 00:00 14:38 13:16 00:06
Maximum _ 26,3 C 32,8 C 37,8 C 91 % 0 lf 1020,8 hPa 0,0 l/m 3 min 0 min 1149 W/m 25,1 km/h
SW (4 Bft)
100,00 %
Durchschnitt _ 20,2 C 21,5 C 20,8 C 73 % 0 lf 1019,3 hPa #0,0 l/m #9:51 h #0 min. 362 W/m 9,9 km/h (2 Bft) 96,52 %
© 2017 W. Hausmann